Wetterdaten: Mittwoch, 21.06.2023
Datum Zeit Temp. Aussen Temp. o. S. Temp +5cm Feuchte Auss Luftdruck Regen Sonnenschein Regendauer Solar Windben Empfang
21.06.2023 00:00 20,2 C 18,9 C 15,6 C 92 % 1012,4 hPa 0,0 l/m 0 min 0 min 0 W/m 0,0 km/h (0 Bft) 100,00 %
21.06.2023 00:02 20,2 C 18,9 C 15,6 C 93 % 1012,3 hPa 0,0 l/m 0 min 0 min 0 W/m 0,0 km/h (0 Bft) 94,12 %
21.06.2023 00:04 20,2 C 18,9 C 15,0 C 93 % 1012,2 hPa 0,0 l/m 0 min 0 min 0 W/m 0,0 km/h (0 Bft) 100,00 %
21.06.2023 00:07 20,2 C 18,9 C 15,0 C 93 % 1012,3 hPa 0,0 l/m 0 min 0 min 0 W/m 0,0 km/h (0 Bft) 100,00 %
21.06.2023 00:08 20,1 C 18,9 C 15,0 C 93 % 1012,4 hPa 0,0 l/m 0 min 0 min 0 W/m 0,0 km/h (0 Bft) 96,81 %
21.06.2023 00:10 20,1 C 18,9 C 15,0 C 92 % 1012,3 hPa 0,0 l/m 0 min 0 min 0 W/m 0,0 km/h (0 Bft) 91,49 %
21.06.2023 00:12 20,1 C 18,9 C 15,0 C 92 % 1012,3 hPa 0,0 l/m 0 min 0 min 0 W/m 0,0 km/h (0 Bft) 97,87 %
21.06.2023 00:14 20,1 C 18,9 C 15,0 C 92 % 1012,4 hPa 0,0 l/m 0 min 0 min 0 W/m 3,2 km/h (1 Bft) 97,83 %
21.06.2023 00:16 20,0 C 18,9 C 15,0 C 93 % 1012,6 hPa 0,0 l/m 0 min 0 min 0 W/m 9,7 km/h (2 Bft) 97,87 %
21.06.2023 00:18 19,9 C 18,9 C 15,0 C 93 % 1012,6 hPa 0,0 l/m 0 min 0 min 0 W/m 6,4 km/h (2 Bft) 97,87 %
21.06.2023 00:20 19,9 C 18,9 C 15,0 C 93 % 1012,7 hPa 0,0 l/m 0 min 0 min 0 W/m 3,2 km/h (1 Bft) 98,11 %
21.06.2023 00:22 19,9 C 18,9 C 15,0 C 93 % 1012,7 hPa 0,0 l/m 0 min 0 min 0 W/m 3,2 km/h (1 Bft) 97,87 %
21.06.2023 00:24 19,9 C 18,9 C 15,0 C 93 % 1012,7 hPa 0,0 l/m 0 min 0 min 0 W/m 6,4 km/h (2 Bft) 97,87 %
21.06.2023 00:26 19,8 C 18,9 C 15,0 C 93 % 1012,6 hPa 0,0 l/m 0 min 0 min 0 W/m 3,2 km/h (1 Bft) 97,83 %
21.06.2023 00:28 19,8 C 18,9 C 15,0 C 93 % 1012,6 hPa 0,0 l/m 0 min 0 min 0 W/m 6,4 km/h (2 Bft) 97,87 %
21.06.2023 00:30 19,8 C 18,9 C 15,0 C 93 % 1012,6 hPa 0,0 l/m 0 min 0 min 0 W/m 3,2 km/h (1 Bft) 95,74 %
21.06.2023 00:32 19,7 C 18,3 C 15,0 C 93 % 1012,5 hPa 0,0 l/m 0 min 0 min 0 W/m 3,2 km/h (1 Bft) 95,83 %
21.06.2023 00:34 19,7 C 18,3 C 14,4 C 93 % 1012,4 hPa 0,0 l/m 0 min 0 min 0 W/m 6,4 km/h (2 Bft) 96,00 %
21.06.2023 00:36 19,7 C 18,3 C 15,0 C 93 % 1012,4 hPa 0,0 l/m 0 min 0 min 0 W/m 6,4 km/h (2 Bft) 95,74 %
21.06.2023 00:38 19,7 C 18,3 C 15,0 C 93 % 1012,4 hPa 0,0 l/m 0 min 0 min 0 W/m 3,2 km/h (1 Bft) 97,83 %
21.06.2023 00:40 19,7 C 18,9 C 15,0 C 93 % 1012,4 hPa 0,0 l/m 0 min 0 min 0 W/m 6,4 km/h (2 Bft) 97,87 %
21.06.2023 00:42 19,7 C 18,9 C 15,0 C 93 % 1012,5 hPa 0,0 l/m 0 min 0 min 0 W/m 6,4 km/h (2 Bft) 97,92 %
21.06.2023 00:44 19,7 C 18,9 C 15,0 C 93 % 1012,5 hPa 0,0 l/m 0 min 0 min 0 W/m 3,2 km/h (1 Bft) 97,22 %
21.06.2023 00:46 19,7 C 18,9 C 15,0 C 93 % 1012,5 hPa 0,0 l/m 0 min 0 min 0 W/m 0,0 km/h (0 Bft) 97,92 %
21.06.2023 00:48 19,7 C 18,9 C 15,0 C 94 % 1012,4 hPa 0,0 l/m 0 min 0 min 0 W/m 0,0 km/h (0 Bft) 97,87 %
21.06.2023 00:50 19,7 C 18,9 C 15,0 C 93 % 1012,5 hPa 0,0 l/m 0 min 0 min 0 W/m 3,2 km/h (1 Bft) 97,87 %
21.06.2023 00:52 19,6 C 18,3 C 14,4 C 93 % 1012,3 hPa 0,0 l/m 0 min 0 min 0 W/m 3,2 km/h (1 Bft) 100,00 %
21.06.2023 00:54 19,6 C 18,3 C 14,4 C 93 % 1012,4 hPa 0,0 l/m 0 min 0 min 0 W/m 0,0 km/h (0 Bft) 100,00 %
21.06.2023 00:56 19,7 C 18,9 C 15,0 C 94 % 1012,4 hPa 0,0 l/m 0 min 0 min 0 W/m 3,2 km/h (1 Bft) 100,00 %
21.06.2023 00:58 19,6 C 18,9 C 15,0 C 94 % 1012,5 hPa 0,0 l/m 0 min 0 min 0 W/m 3,2 km/h (1 Bft) 100,00 %
21.06.2023 01:00 19,6 C 18,9 C 15,0 C 94 % 1012,6 hPa 0,0 l/m 0 min 0 min 0 W/m 6,4 km/h (2 Bft) 97,87 %
21.06.2023 01:02 19,6 C 18,9 C 15,0 C 94 % 1012,7 hPa 0,0 l/m 0 min 0 min 0 W/m 6,4 km/h (2 Bft) 100,00 %
21.06.2023 01:04 19,6 C 18,9 C 15,0 C 94 % 1012,7 hPa 0,0 l/m 0 min 0 min 0 W/m 6,4 km/h (2 Bft) 97,92 %
21.06.2023 01:06 19,6 C 18,9 C 15,0 C 94 % 1012,8 hPa 0,0 l/m 0 min 0 min 0 W/m 6,4 km/h (2 Bft) 97,96 %
21.06.2023 01:08 19,6 C 18,9 C 15,0 C 94 % 1012,9 hPa 0,0 l/m 0 min 0 min 0 W/m 3,2 km/h (1 Bft) 97,83 %
21.06.2023 01:10 19,6 C 18,9 C 15,0 C 94 % 1013,0 hPa 0,0 l/m 0 min 0 min 0 W/m 0,0 km/h (0 Bft) 97,87 %
21.06.2023 01:12 19,6 C 18,3 C 15,0 C 94 % 1012,9 hPa 0,0 l/m 0 min 0 min 0 W/m 3,2 km/h (1 Bft) 97,87 %
21.06.2023 01:14 19,6 C 18,3 C 15,0 C 94 % 1013,0 hPa 0,0 l/m 0 min 0 min 0 W/m 3,2 km/h (1 Bft) 97,87 %
21.06.2023 01:16 19,5 C 18,3 C 15,0 C 94 % 1013,0 hPa 0,0 l/m 0 min 0 min 0 W/m 6,4 km/h (2 Bft) 95,74 %
21.06.2023 01:18 19,5 C 18,3 C 15,0 C 94 % 1013,0 hPa 0,0 l/m 0 min 0 min 0 W/m 6,4 km/h (2 Bft) 97,87 %
21.06.2023 01:20 19,5 C 18,3 C 15,0 C 94 % 1013,0 hPa 0,0 l/m 0 min 0 min 0 W/m 3,2 km/h (1 Bft) 97,87 %
21.06.2023 01:22 19,5 C 18,3 C 15,0 C 94 % 1012,9 hPa 0,0 l/m 0 min 0 min 0 W/m 3,2 km/h (1 Bft) 97,83 %
21.06.2023 01:24 19,5 C 18,9 C 15,0 C 94 % 1012,8 hPa 0,0 l/m 0 min 0 min 0 W/m 6,4 km/h (2 Bft) 97,87 %
21.06.2023 01:26 19,4 C 18,3 C 14,4 C 94 % 1012,9 hPa 0,0 l/m 0 min 0 min 0 W/m 0,0 km/h (0 Bft) 95,74 %
21.06.2023 01:28 19,4 C 18,3 C 14,4 C 94 % 1012,8 hPa 0,0 l/m 0 min 0 min 0 W/m 0,0 km/h (0 Bft) 97,87 %
21.06.2023 01:30 19,4 C 18,3 C 14,4 C 94 % 1012,7 hPa 0,0 l/m 0 min 0 min 0 W/m 0,0 km/h (0 Bft) 97,87 %
21.06.2023 01:32 19,4 C 18,3 C 14,4 C 94 % 1012,8 hPa 0,0 l/m 0 min 0 min 0 W/m 0,0 km/h (0 Bft) 97,87 %
21.06.2023 01:34 19,4 C 18,3 C 14,4 C 94 % 1012,8 hPa 0,0 l/m 0 min 0 min 0 W/m 3,2 km/h (1 Bft) 100,00 %
21.06.2023 01:36 19,4 C 18,3 C 14,4 C 94 % 1012,8 hPa 0,0 l/m 0 min 0 min 0 W/m 3,2 km/h (1 Bft) 97,83 %
21.06.2023 01:38 19,4 C 18,3 C 14,4 C 94 % 1012,8 hPa 0,0 l/m 0 min 0 min 0 W/m 3,2 km/h (1 Bft) 100,00 %
21.06.2023 01:40 19,4 C 18,3 C 14,4 C 94 % 1012,7 hPa 0,0 l/m 0 min 0 min 0 W/m 0,0 km/h (0 Bft) 97,87 %
21.06.2023 01:42 19,4 C 18,3 C 14,4 C 94 % 1012,7 hPa 0,0 l/m 0 min 0 min 0 W/m 0,0 km/h (0 Bft) 100,00 %
21.06.2023 01:44 19,4 C 18,3 C 14,4 C 94 % 1012,7 hPa 0,0 l/m 0 min 0 min 0 W/m 3,2 km/h (1 Bft) 100,00 %
21.06.2023 01:46 19,4 C 18,3 C 14,4 C 94 % 1012,8 hPa 0,0 l/m 0 min 0 min 0 W/m 0,0 km/h (0 Bft) 100,00 %
21.06.2023 01:48 19,3 C 18,3 C 14,4 C 94 % 1012,8 hPa 0,0 l/m 0 min 0 min 0 W/m 0,0 km/h (0 Bft) 97,83 %
21.06.2023 01:50 19,3 C 18,3 C 14,4 C 94 % 1012,8 hPa 0,0 l/m 0 min 0 min 0 W/m 3,2 km/h (1 Bft) 97,87 %
21.06.2023 01:52 19,3 C 18,3 C 14,4 C 94 % 1012,7 hPa 0,0 l/m 0 min 0 min 0 W/m 3,2 km/h (1 Bft) 97,87 %
21.06.2023 01:54 19,3 C 18,3 C 14,4 C 94 % 1012,7 hPa 0,0 l/m 0 min 0 min 0 W/m 3,2 km/h (1 Bft) 97,87 %
21.06.2023 01:56 19,2 C 18,3 C 14,4 C 94 % 1012,8 hPa 0,0 l/m 0 min 0 min 0 W/m 3,2 km/h (1 Bft) 97,87 %
21.06.2023 01:58 19,2 C 17,8 C 14,4 C 94 % 1012,8 hPa 0,0 l/m 0 min 0 min 0 W/m 3,2 km/h (1 Bft) 95,74 %
21.06.2023 02:00 19,2 C 17,8 C 14,4 C 94 % 1012,8 hPa 0,0 l/m 0 min 0 min 0 W/m 3,2 km/h (1 Bft) 95,65 %
21.06.2023 02:02 19,2 C 17,8 C 14,4 C 94 % 1012,9 hPa 0,0 l/m 0 min 0 min 0 W/m 3,2 km/h (1 Bft) 95,74 %
21.06.2023 02:04 19,2 C 17,8 C 14,4 C 94 % 1012,9 hPa 0,0 l/m 0 min 0 min 0 W/m 3,2 km/h (1 Bft) 97,87 %
21.06.2023 02:06 19,1 C 17,8 C 14,4 C 94 % 1012,9 hPa 0,0 l/m 0 min 0 min 0 W/m 3,2 km/h (1 Bft) 98,41 %
21.06.2023 02:08 19,1 C 17,8 C 14,4 C 94 % 1012,9 hPa 0,0 l/m 0 min 0 min 0 W/m 0,0 km/h (0 Bft) 97,14 %
21.06.2023 02:10 19,1 C 17,8 C 14,4 C 94 % 1012,9 hPa 0,0 l/m 0 min 0 min 0 W/m 3,2 km/h (1 Bft) 97,87 %
21.06.2023 02:12 19,1 C 17,8 C 14,4 C 94 % 1012,9 hPa 0,0 l/m 0 min 0 min 0 W/m 0,0 km/h (0 Bft) 97,83 %
21.06.2023 02:14 19,1 C 17,8 C 14,4 C 94 % 1012,9 hPa 0,0 l/m 0 min 0 min 0 W/m 0,0 km/h (0 Bft) 95,74 %
21.06.2023 02:16 19,1 C 17,8 C 14,4 C 94 % 1012,9 hPa 0,0 l/m 0 min 0 min 0 W/m 3,2 km/h (1 Bft) 95,74 %
21.06.2023 02:18 19,1 C 18,3 C 14,4 C 94 % 1012,9 hPa 0,0 l/m 0 min 0 min 0 W/m 0,0 km/h (0 Bft) 97,87 %
21.06.2023 02:20 19,1 C 18,3 C 14,4 C 94 % 1013,0 hPa 0,0 l/m 0 min 0 min 0 W/m 3,2 km/h (1 Bft) 97,87 %
21.06.2023 02:22 19,1 C 17,8 C 14,4 C 94 % 1012,9 hPa 0,0 l/m 0 min 0 min 0 W/m 3,2 km/h (1 Bft) 97,87 %
21.06.2023 02:24 19,1 C 17,8 C 14,4 C 94 % 1013,0 hPa 0,0 l/m 0 min 0 min 0 W/m 0,0 km/h (0 Bft) 97,87 %
21.06.2023 02:26 19,1 C 17,8 C 14,4 C 94 % 1013,0 hPa 0,0 l/m 0 min 0 min 0 W/m 0,0 km/h (0 Bft) 97,83 %
21.06.2023 02:28 19,1 C 17,8 C 14,4 C 94 % 1013,0 hPa 0,0 l/m 0 min 0 min 0 W/m 3,2 km/h (1 Bft) 95,74 %
21.06.2023 02:30 19,1 C 17,8 C 14,4 C 94 % 1013,0 hPa 0,0 l/m 0 min 0 min 0 W/m 3,2 km/h (1 Bft) 97,87 %
21.06.2023 02:32 19,0 C 17,8 C 14,4 C 94 % 1013,1 hPa 0,0 l/m 0 min 0 min 0 W/m 3,2 km/h (1 Bft) 97,87 %
21.06.2023 02:34 19,0 C 17,8 C 14,4 C 94 % 1013,1 hPa 0,0 l/m 0 min 0 min 0 W/m 0,0 km/h (0 Bft) 95,74 %
21.06.2023 02:36 19,0 C 17,8 C 14,4 C 94 % 1013,1 hPa 0,0 l/m 0 min 0 min 0 W/m 3,2 km/h (1 Bft) 95,74 %
21.06.2023 02:38 19,0 C 17,8 C 14,4 C 94 % 1013,1 hPa 0,0 l/m 0 min 0 min 0 W/m 3,2 km/h (1 Bft) 95,74 %
21.06.2023 02:40 19,0 C 18,3 C 14,4 C 94 % 1013,1 hPa 0,0 l/m 0 min 0 min 0 W/m 3,2 km/h (1 Bft) 97,87 %
21.06.2023 02:42 19,0 C 17,8 C 14,4 C 94 % 1013,0 hPa 0,0 l/m 0 min 0 min 0 W/m 3,2 km/h (1 Bft) 97,87 %
21.06.2023 02:44 19,0 C 17,8 C 14,4 C 94 % 1013,1 hPa 0,0 l/m 0 min 0 min 0 W/m 3,2 km/h (1 Bft) 100,00 %
21.06.2023 02:46 19,0 C 17,8 C 14,4 C 94 % 1013,0 hPa 0,0 l/m 0 min 0 min 0 W/m 0,0 km/h (0 Bft) 97,87 %
21.06.2023 02:48 19,0 C 17,8 C 13,9 C 94 % 1013,0 hPa 0,0 l/m 0 min 0 min 0 W/m 0,0 km/h (0 Bft) 97,87 %
21.06.2023 02:50 19,0 C 17,8 C 14,4 C 94 % 1013,0 hPa 0,0 l/m 0 min 0 min 0 W/m 0,0 km/h (0 Bft) 95,65 %
21.06.2023 02:52 18,9 C 17,8 C 14,4 C 94 % 1013,0 hPa 0,0 l/m 0 min 0 min 0 W/m 0,0 km/h (0 Bft) 93,62 %
21.06.2023 02:54 18,9 C 17,8 C 13,9 C 94 % 1013,0 hPa 0,0 l/m 0 min 0 min 0 W/m 0,0 km/h (0 Bft) 95,74 %
21.06.2023 02:56 18,9 C 17,8 C 14,4 C 94 % 1013,1 hPa 0,0 l/m 0 min 0 min 0 W/m 0,0 km/h (0 Bft) 93,62 %
21.06.2023 02:58 18,9 C 17,8 C 14,4 C 94 % 1013,1 hPa 0,0 l/m 0 min 0 min 0 W/m 0,0 km/h (0 Bft) 93,62 %
21.06.2023 03:00 18,9 C 17,8 C 14,4 C 95 % 1013,2 hPa 0,0 l/m 0 min 0 min 0 W/m 0,0 km/h (0 Bft) 95,74 %
21.06.2023 03:02 18,9 C 17,8 C 14,4 C 95 % 1013,3 hPa 0,0 l/m 0 min 0 min 0 W/m 0,0 km/h (0 Bft) 95,74 %
21.06.2023 03:04 18,9 C 17,8 C 14,4 C 95 % 1013,3 hPa 0,0 l/m 0 min 0 min 0 W/m 0,0 km/h (0 Bft) 94,59 %
21.06.2023 03:06 18,9 C 18,3 C 14,4 C 95 % 1013,4 hPa 0,0 l/m 0 min 0 min 0 W/m 0,0 km/h (0 Bft) 96,55 %
21.06.2023 03:08 18,9 C 17,8 C 14,4 C 95 % 1013,4 hPa 0,0 l/m 0 min 0 min 0 W/m 0,0 km/h (0 Bft) 94,29 %
21.06.2023 03:10 18,9 C 17,8 C 14,4 C 95 % 1013,4 hPa 0,0 l/m 0 min 0 min 0 W/m 0,0 km/h (0 Bft) 93,62 %
21.06.2023 03:12 18,9 C 17,8 C 14,4 C 95 % 1013,5 hPa 0,0 l/m 0 min 0 min 0 W/m 0,0 km/h (0 Bft) 93,62 %
21.06.2023 03:14 18,9 C 17,8 C 14,4 C 95 % 1013,5 hPa 0,0 l/m 0 min 0 min 0 W/m 0,0 km/h (0 Bft) 95,74 %
21.06.2023 03:16 18,9 C 17,8 C 14,4 C 95 % 1013,5 hPa 0,0 l/m 0 min 0 min 0 W/m 3,2 km/h (1 Bft) 95,74 %
21.06.2023 03:18 18,8 C 17,8 C 14,4 C 95 % 1013,5 hPa 0,0 l/m 0 min 0 min 0 W/m 3,2 km/h (1 Bft) 93,62 %
21.06.2023 03:20 18,9 C 17,8 C 14,4 C 95 % 1013,5 hPa 0,0 l/m 0 min 0 min 0 W/m 6,4 km/h (2 Bft) 93,48 %
21.06.2023 03:22 18,8 C 17,8 C 14,4 C 95 % 1013,6 hPa 0,0 l/m 0 min 0 min 0 W/m 3,2 km/h (1 Bft) 97,87 %
21.06.2023 03:24 18,9 C 17,8 C 14,4 C 95 % 1013,5 hPa 0,0 l/m 0 min 0 min 0 W/m 0,0 km/h (0 Bft) 97,87 %
21.06.2023 03:26 18,9 C 17,8 C 15,0 C 95 % 1013,4 hPa 0,0 l/m 0 min 0 min 0 W/m 3,2 km/h (1 Bft) 97,87 %
21.06.2023 03:28 18,9 C 17,8 C 15,0 C 95 % 1013,4 hPa 0,0 l/m 0 min 0 min 0 W/m 3,2 km/h (1 Bft) 95,74 %
21.06.2023 03:30 18,9 C 17,8 C 15,0 C 95 % 1013,4 hPa 0,0 l/m 0 min 0 min 0 W/m 3,2 km/h (1 Bft) 97,87 %
21.06.2023 03:32 18,8 C 17,8 C 15,0 C 95 % 1013,4 hPa 0,0 l/m 0 min 0 min 0 W/m 0,0 km/h (0 Bft) 100,00 %
21.06.2023 03:34 18,8 C 17,8 C 15,0 C 95 % 1013,4 hPa 0,0 l/m 0 min 0 min 0 W/m 3,2 km/h (1 Bft) 100,00 %
21.06.2023 03:36 18,8 C 17,8 C 15,0 C 95 % 1013,5 hPa 0,0 l/m 0 min 0 min 0 W/m 3,2 km/h (1 Bft) 100,00 %
21.06.2023 03:38 18,8 C 17,8 C 15,0 C 95 % 1013,5 hPa 0,0 l/m 0 min 0 min 0 W/m 3,2 km/h (1 Bft) 97,87 %
21.06.2023 03:40 18,8 C 17,8 C 15,0 C 95 % 1013,4 hPa 0,0 l/m 0 min 0 min 0 W/m 0,0 km/h (0 Bft) 100,00 %
21.06.2023 03:42 18,8 C 17,8 C 15,0 C 95 % 1013,5 hPa 0,0 l/m 0 min 0 min 0 W/m 6,4 km/h (2 Bft) 97,87 %
21.06.2023 03:44 18,7 C 17,8 C 15,0 C 95 % 1013,5 hPa 0,0 l/m 0 min 0 min 0 W/m 3,2 km/h (1 Bft) 100,00 %
21.06.2023 03:46 18,7 C 17,8 C 15,0 C 95 % 1013,5 hPa 0,0 l/m 0 min 0 min 0 W/m 3,2 km/h (1 Bft) 100,00 %
21.06.2023 03:48 18,7 C 17,8 C 15,0 C 95 % 1013,5 hPa 0,0 l/m 0 min 0 min 0 W/m 3,2 km/h (1 Bft) 100,00 %
21.06.2023 03:50 18,7 C 17,8 C 15,0 C 95 % 1013,5 hPa 0,0 l/m 0 min 0 min 0 W/m 3,2 km/h (1 Bft) 100,00 %
21.06.2023 03:52 18,7 C 17,8 C 15,0 C 95 % 1013,5 hPa 0,0 l/m 0 min 0 min 0 W/m 3,2 km/h (1 Bft) 100,00 %
21.06.2023 03:54 18,7 C 17,8 C 15,0 C 95 % 1013,5 hPa 0,0 l/m 0 min 0 min 0 W/m 3,2 km/h (1 Bft) 100,00 %
21.06.2023 03:56 18,7 C 17,8 C 15,0 C 95 % 1013,5 hPa 0,0 l/m 0 min 0 min 0 W/m 3,2 km/h (1 Bft) 100,00 %
21.06.2023 03:58 18,7 C 17,8 C 15,0 C 95 % 1013,6 hPa 0,0 l/m 0 min 0 min 0 W/m 3,2 km/h (1 Bft) 97,87 %
21.06.2023 04:00 18,7 C 17,8 C 15,0 C 95 % 1013,6 hPa 0,0 l/m 0 min 0 min 0 W/m 3,2 km/h (1 Bft) 100,00 %
21.06.2023 04:06 18,6 C 17,8 C 15,0 C 95 % 1013,7 hPa 0,0 l/m 0 min 0 min 0 W/m 6,4 km/h (2 Bft) 100,00 %
21.06.2023 04:12 18,6 C 17,8 C 15,0 C 95 % 1013,6 hPa 0,0 l/m 0 min 0 min 0 W/m 6,4 km/h (2 Bft) 92,86 %
21.06.2023 04:16 18,6 C 17,8 C 15,0 C 95 % 1013,6 hPa 0,0 l/m 0 min 0 min 0 W/m 0,0 km/h (0 Bft) 100,00 %
21.06.2023 04:22 18,5 C 17,8 C 15,0 C 95 % 1013,7 hPa 0,0 l/m 0 min 0 min 0 W/m 12,9 km/h (3 Bft) 97,59 %
21.06.2023 04:23 18,5 C 17,8 C 15,0 C 95 % 1013,8 hPa 0,0 l/m 0 min 0 min 0 W/m 12,9 km/h (3 Bft) 95,83 %
21.06.2023 04:25 18,5 C 17,8 C 15,0 C 95 % 1013,8 hPa 0,0 l/m 0 min 0 min 0 W/m 12,9 km/h (3 Bft) 100,00 %
21.06.2023 04:28 18,5 C 17,8 C 15,0 C 95 % 1013,7 hPa 0,0 l/m 0 min 0 min 0 W/m 3,2 km/h (1 Bft) 100,00 %
21.06.2023 04:30 18,5 C 17,8 C 15,0 C 95 % 1013,8 hPa 0,0 l/m 0 min 0 min 0 W/m 6,4 km/h (2 Bft) 97,87 %
21.06.2023 04:32 18,5 C 17,8 C 15,0 C 95 % 1013,7 hPa 0,0 l/m 0 min 0 min 0 W/m 3,2 km/h (1 Bft) 100,00 %
21.06.2023 04:34 18,5 C 17,8 C 15,0 C 95 % 1013,8 hPa 0,0 l/m 0 min 0 min 0 W/m 3,2 km/h (1 Bft) 100,00 %
21.06.2023 04:36 18,4 C 17,8 C 15,0 C 95 % 1013,8 hPa 0,0 l/m 0 min 0 min 0 W/m 3,2 km/h (1 Bft) 100,00 %
21.06.2023 04:38 18,4 C 17,8 C 15,0 C 95 % 1013,7 hPa 0,0 l/m 0 min 0 min 0 W/m 0,0 km/h (0 Bft) 97,87 %
21.06.2023 04:40 18,4 C 17,8 C 15,0 C 95 % 1013,8 hPa 0,0 l/m 0 min 0 min 0 W/m 3,2 km/h (1 Bft) 95,74 %
21.06.2023 04:42 18,4 C 17,8 C 15,0 C 95 % 1013,9 hPa 0,0 l/m 0 min 0 min 0 W/m 6,4 km/h (2 Bft) 97,87 %
21.06.2023 04:44 18,4 C 17,8 C 15,0 C 95 % 1013,9 hPa 0,0 l/m 0 min 0 min 0 W/m 3,2 km/h (1 Bft) 97,87 %
21.06.2023 04:46 18,4 C 17,8 C 15,0 C 95 % 1013,9 hPa 0,0 l/m 0 min 0 min 0 W/m 3,2 km/h (1 Bft) 97,87 %
21.06.2023 04:48 18,4 C 17,8 C 15,0 C 95 % 1013,8 hPa 0,0 l/m 0 min 0 min 0 W/m 0,0 km/h (0 Bft) 95,74 %
21.06.2023 04:50 18,4 C 17,2 C 15,0 C 95 % 1013,9 hPa 0,0 l/m 0 min 0 min 0 W/m 0,0 km/h (0 Bft) 95,65 %
21.06.2023 04:52 18,4 C 17,2 C 15,0 C 95 % 1013,9 hPa 0,0 l/m 0 min 0 min 0 W/m 0,0 km/h (0 Bft) 97,87 %
21.06.2023 04:54 18,4 C 17,2 C 15,0 C 95 % 1013,9 hPa 0,0 l/m 0 min 0 min 0 W/m 0,0 km/h (0 Bft) 95,74 %
21.06.2023 04:56 18,4 C 17,2 C 14,4 C 95 % 1013,9 hPa 0,0 l/m 0 min 0 min 0 W/m 0,0 km/h (0 Bft) 93,62 %
21.06.2023 04:58 18,4 C 17,2 C 14,4 C 95 % 1013,9 hPa 0,0 l/m 0 min 0 min 0 W/m 0,0 km/h (0 Bft) 95,74 %
21.06.2023 05:00 18,4 C 17,2 C 14,4 C 95 % 1013,9 hPa 0,0 l/m 0 min 0 min 0 W/m 0,0 km/h (0 Bft) 95,74 %
21.06.2023 05:02 18,3 C 17,2 C 14,4 C 95 % 1014,0 hPa 0,0 l/m 0 min 0 min 0 W/m 0,0 km/h (0 Bft) 95,74 %
21.06.2023 05:04 18,3 C 17,2 C 14,4 C 95 % 1014,0 hPa 0,0 l/m 0 min 0 min 0 W/m 0,0 km/h (0 Bft) 95,92 %
21.06.2023 05:06 18,3 C 17,2 C 14,4 C 95 % 1014,0 hPa 0,0 l/m 0 min 0 min 0 W/m 0,0 km/h (0 Bft) 93,22 %
21.06.2023 05:08 18,3 C 17,2 C 14,4 C 95 % 1014,0 hPa 0,0 l/m 0 min 0 min 0 W/m 0,0 km/h (0 Bft) 100,00 %
21.06.2023 05:10 18,3 C 17,2 C 14,4 C 95 % 1014,1 hPa 0,0 l/m 0 min 0 min 0 W/m 0,0 km/h (0 Bft) 97,87 %
21.06.2023 05:12 18,3 C 17,2 C 14,4 C 95 % 1014,1 hPa 0,0 l/m 0 min 0 min 0 W/m 3,2 km/h (1 Bft) 93,62 %
21.06.2023 05:14 18,3 C 17,2 C 15,0 C 95 % 1014,1 hPa 0,0 l/m 0 min 0 min 0 W/m 3,2 km/h (1 Bft) 97,87 %
21.06.2023 05:16 18,3 C 17,2 C 15,0 C 95 % 1014,2 hPa 0,0 l/m 0 min 0 min 0 W/m 3,2 km/h (1 Bft) 97,83 %
21.06.2023 05:18 18,3 C 17,2 C 15,0 C 95 % 1014,2 hPa 0,0 l/m 0 min 0 min 0 W/m 3,2 km/h (1 Bft) 97,87 %
21.06.2023 05:20 18,3 C 17,2 C 15,0 C 95 % 1014,2 hPa 0,0 l/m 0 min 0 min 0 W/m 0,0 km/h (0 Bft) 97,87 %
21.06.2023 05:22 18,3 C 17,2 C 14,4 C 95 % 1014,2 hPa 0,0 l/m 0 min 0 min 0 W/m 3,2 km/h (1 Bft) 97,87 %
21.06.2023 05:24 18,3 C 17,2 C 14,4 C 95 % 1014,2 hPa 0,0 l/m 0 min 0 min 0 W/m 0,0 km/h (0 Bft) 95,74 %
21.06.2023 05:26 18,3 C 17,2 C 14,4 C 95 % 1014,3 hPa 0,0 l/m 0 min 0 min 0 W/m 0,0 km/h (0 Bft) 95,74 %
21.06.2023 05:28 18,3 C 17,2 C 14,4 C 95 % 1014,2 hPa 0,0 l/m 0 min 0 min 0 W/m 0,0 km/h (0 Bft) 93,48 %
21.06.2023 05:30 18,3 C 17,8 C 14,4 C 95 % 1014,3 hPa 0,0 l/m 0 min 0 min 4 W/m 0,0 km/h (0 Bft) 95,74 %
21.06.2023 05:32 18,3 C 17,2 C 14,4 C 95 % 1014,3 hPa 0,0 l/m 0 min 0 min 5 W/m 0,0 km/h (0 Bft) 95,74 %
21.06.2023 05:34 18,3 C 17,2 C 14,4 C 95 % 1014,4 hPa 0,0 l/m 0 min 0 min 5 W/m 0,0 km/h (0 Bft) 95,74 %
21.06.2023 05:36 18,3 C 17,8 C 15,0 C 95 % 1014,3 hPa 0,0 l/m 0 min 0 min 7 W/m 0,0 km/h (0 Bft) 93,62 %
21.06.2023 05:38 18,3 C 17,2 C 15,0 C 95 % 1014,4 hPa 0,0 l/m 0 min 0 min 7 W/m 0,0 km/h (0 Bft) 91,49 %
21.06.2023 05:40 18,3 C 17,2 C 15,0 C 95 % 1014,4 hPa 0,0 l/m 0 min 0 min 9 W/m 0,0 km/h (0 Bft) 93,62 %
21.06.2023 05:42 18,3 C 17,2 C 15,0 C 95 % 1014,4 hPa 0,0 l/m 0 min 0 min 10 W/m 0,0 km/h (0 Bft) 95,65 %
21.06.2023 05:44 18,3 C 17,8 C 15,0 C 95 % 1014,5 hPa 0,0 l/m 0 min 0 min 11 W/m 3,2 km/h (1 Bft) 95,74 %
21.06.2023 05:46 18,3 C 17,8 C 15,0 C 95 % 1014,5 hPa 0,0 l/m 0 min 0 min 11 W/m 0,0 km/h (0 Bft) 91,49 %
21.06.2023 05:48 18,3 C 17,8 C 15,0 C 95 % 1014,5 hPa 0,0 l/m 0 min 0 min 12 W/m 0,0 km/h (0 Bft) 95,74 %
21.06.2023 05:50 18,3 C 17,8 C 15,0 C 95 % 1014,5 hPa 0,0 l/m 0 min 0 min 14 W/m 0,0 km/h (0 Bft) 93,62 %
21.06.2023 05:52 18,3 C 17,8 C 15,0 C 95 % 1014,5 hPa 0,0 l/m 0 min 0 min 14 W/m 0,0 km/h (0 Bft) 97,87 %
21.06.2023 05:54 18,4 C 17,8 C 15,0 C 95 % 1014,5 hPa 0,0 l/m 0 min 0 min 16 W/m 6,4 km/h (2 Bft) 97,83 %
21.06.2023 05:56 18,4 C 17,8 C 15,0 C 95 % 1014,5 hPa 0,0 l/m 0 min 0 min 19 W/m 6,4 km/h (2 Bft) 97,87 %
21.06.2023 05:58 18,4 C 17,8 C 15,0 C 96 % 1014,5 hPa 0,0 l/m 0 min 0 min 22 W/m 6,4 km/h (2 Bft) 97,87 %
21.06.2023 06:00 18,4 C 17,8 C 15,0 C 96 % 1014,5 hPa 0,0 l/m 0 min 0 min 23 W/m 3,2 km/h (1 Bft) 95,74 %
21.06.2023 06:02 18,4 C 17,8 C 15,0 C 96 % 1014,5 hPa 0,0 l/m 0 min 0 min 23 W/m 9,7 km/h (2 Bft) 97,87 %
21.06.2023 06:04 18,4 C 17,8 C 15,0 C 96 % 1014,5 hPa 0,0 l/m 0 min 0 min 24 W/m 6,4 km/h (2 Bft) 97,96 %
21.06.2023 06:08 18,4 C 17,8 C 15,0 C 96 % 1014,5 hPa 0,0 l/m 0 min 0 min 25 W/m 6,4 km/h (2 Bft) 96,77 %
21.06.2023 06:10 18,5 C 17,8 C 15,0 C 96 % 1014,5 hPa 0,0 l/m 0 min 0 min 27 W/m 6,4 km/h (2 Bft) 97,87 %
21.06.2023 06:12 18,5 C 18,3 C 15,0 C 96 % 1014,5 hPa 0,0 l/m 0 min 0 min 30 W/m 3,2 km/h (1 Bft) 97,87 %
21.06.2023 06:14 18,5 C 18,3 C 15,6 C 96 % 1014,5 hPa 0,0 l/m 0 min 0 min 32 W/m 0,0 km/h (0 Bft) 97,87 %
21.06.2023 06:16 18,5 C 18,3 C 15,6 C 96 % 1014,6 hPa 0,0 l/m 0 min 0 min 32 W/m 9,7 km/h (2 Bft) 100,00 %
21.06.2023 06:18 18,6 C 18,3 C 15,6 C 96 % 1014,5 hPa 0,0 l/m 0 min 0 min 30 W/m 6,4 km/h (2 Bft) 100,00 %
21.06.2023 06:20 18,6 C 18,3 C 15,6 C 96 % 1014,6 hPa 0,0 l/m 0 min 0 min 30 W/m 6,4 km/h (2 Bft) 100,00 %
21.06.2023 06:22 18,6 C 18,3 C 15,6 C 96 % 1014,6 hPa 0,0 l/m 0 min 0 min 30 W/m 6,4 km/h (2 Bft) 97,87 %
21.06.2023 06:24 18,6 C 18,3 C 15,6 C 96 % 1014,6 hPa 0,0 l/m 0 min 0 min 32 W/m 6,4 km/h (2 Bft) 97,87 %
21.06.2023 06:26 18,6 C 18,3 C 15,6 C 96 % 1014,6 hPa 0,0 l/m 0 min 0 min 33 W/m 6,4 km/h (2 Bft) 97,87 %
21.06.2023 06:28 18,6 C 18,3 C 15,6 C 96 % 1014,6 hPa 0,0 l/m 0 min 0 min 33 W/m 6,4 km/h (2 Bft) 97,87 %
21.06.2023 06:30 18,7 C 18,3 C 15,6 C 96 % 1014,7 hPa 0,0 l/m 0 min 0 min 29 W/m 3,2 km/h (1 Bft) 97,87 %
21.06.2023 06:32 18,7 C 18,3 C 15,6 C 96 % 1014,7 hPa 0,0 l/m 0 min 0 min 26 W/m 0,0 km/h (0 Bft) 97,83 %
21.06.2023 06:34 18,7 C 18,3 C 15,6 C 95 % 1014,8 hPa 0,0 l/m 0 min 0 min 24 W/m 3,2 km/h (1 Bft) 97,87 %
21.06.2023 06:36 18,7 C 18,3 C 15,6 C 95 % 1014,8 hPa 0,0 l/m 0 min 0 min 25 W/m 0,0 km/h (0 Bft) 95,74 %
21.06.2023 06:38 18,7 C 18,3 C 15,6 C 95 % 1014,8 hPa 0,0 l/m 0 min 0 min 26 W/m 3,2 km/h (1 Bft) 95,74 %
21.06.2023 06:40 18,7 C 18,3 C 15,6 C 95 % 1014,8 hPa 0,0 l/m 0 min 0 min 27 W/m 6,4 km/h (2 Bft) 95,74 %
21.06.2023 06:42 18,7 C 18,3 C 15,6 C 95 % 1014,8 hPa 0,0 l/m 0 min 0 min 31 W/m 3,2 km/h (1 Bft) 95,74 %
21.06.2023 06:44 18,7 C 18,3 C 15,6 C 95 % 1014,9 hPa 0,0 l/m 0 min 0 min 36 W/m 3,2 km/h (1 Bft) 97,87 %
21.06.2023 06:46 18,7 C 18,3 C 15,6 C 95 % 1014,9 hPa 0,0 l/m 0 min 0 min 40 W/m 0,0 km/h (0 Bft) 91,30 %
21.06.2023 06:48 18,7 C 18,3 C 15,6 C 95 % 1014,9 hPa 0,0 l/m 0 min 0 min 45 W/m 3,2 km/h (1 Bft) 97,87 %
21.06.2023 06:50 18,7 C 18,3 C 15,6 C 95 % 1014,9 hPa 0,0 l/m 0 min 0 min 50 W/m 3,2 km/h (1 Bft) 95,74 %
21.06.2023 06:52 18,7 C 18,3 C 15,6 C 95 % 1014,9 hPa 0,0 l/m 0 min 0 min 53 W/m 0,0 km/h (0 Bft) 97,87 %
21.06.2023 06:54 18,7 C 18,3 C 15,6 C 95 % 1014,9 hPa 0,0 l/m 0 min 0 min 54 W/m 0,0 km/h (0 Bft) 95,74 %
21.06.2023 06:56 18,8 C 18,9 C 15,6 C 95 % 1014,8 hPa 0,0 l/m 0 min 0 min 49 W/m 0,0 km/h (0 Bft) 100,00 %
21.06.2023 06:58 18,8 C 18,9 C 15,6 C 96 % 1014,9 hPa 0,0 l/m 0 min 0 min 46 W/m 3,2 km/h (1 Bft) 100,00 %
21.06.2023 07:00 18,8 C 18,9 C 15,6 C 96 % 1014,9 hPa 0,0 l/m 0 min 0 min 47 W/m 0,0 km/h (0 Bft) 97,87 %
21.06.2023 07:02 18,9 C 18,9 C 15,6 C 96 % 1014,9 hPa 0,0 l/m 0 min 0 min 51 W/m 0,0 km/h (0 Bft) 100,00 %
21.06.2023 07:04 18,9 C 18,9 C 15,6 C 96 % 1014,9 hPa 0,0 l/m 0 min 0 min 53 W/m 0,0 km/h (0 Bft) 100,00 %
21.06.2023 07:06 18,9 C 18,9 C 15,6 C 96 % 1015,0 hPa 0,0 l/m 0 min 0 min 54 W/m 0,0 km/h (0 Bft) 97,87 %
21.06.2023 07:08 18,9 C 18,9 C 15,6 C 96 % 1015,0 hPa 0,0 l/m 0 min 0 min 55 W/m 0,0 km/h (0 Bft) 100,00 %
21.06.2023 07:10 18,9 C 18,9 C 15,6 C 96 % 1015,0 hPa 0,0 l/m 0 min 0 min 56 W/m 0,0 km/h (0 Bft) 100,00 %
21.06.2023 07:12 19,0 C 18,9 C 15,6 C 96 % 1015,0 hPa 0,0 l/m 0 min 0 min 56 W/m 0,0 km/h (0 Bft) 100,00 %
21.06.2023 07:14 19,0 C 18,9 C 16,1 C 96 % 1015,0 hPa 0,0 l/m 0 min 0 min 56 W/m 3,2 km/h (1 Bft) 100,00 %
21.06.2023 07:16 19,1 C 18,9 C 16,1 C 95 % 1015,0 hPa 0,0 l/m 0 min 0 min 56 W/m 3,2 km/h (1 Bft) 100,00 %
21.06.2023 07:18 19,1 C 18,9 C 16,1 C 95 % 1015,1 hPa 0,0 l/m 0 min 0 min 54 W/m 6,4 km/h (2 Bft) 100,00 %
21.06.2023 07:20 19,1 C 18,9 C 16,1 C 95 % 1015,0 hPa 0,0 l/m 0 min 0 min 54 W/m 3,2 km/h (1 Bft) 97,87 %
21.06.2023 07:22 19,1 C 18,9 C 16,1 C 95 % 1015,1 hPa 0,0 l/m 0 min 0 min 52 W/m 9,7 km/h (2 Bft) 100,00 %
21.06.2023 07:24 19,1 C 18,9 C 16,1 C 95 % 1015,0 hPa 0,0 l/m 0 min 0 min 51 W/m 3,2 km/h (1 Bft) 100,00 %
21.06.2023 07:26 19,2 C 18,9 C 16,1 C 95 % 1015,0 hPa 0,0 l/m 0 min 0 min 53 W/m 6,4 km/h (2 Bft) 100,00 %
21.06.2023 07:28 19,2 C 18,9 C 16,1 C 96 % 1015,1 hPa 0,0 l/m 0 min 0 min 54 W/m 3,2 km/h (1 Bft) 100,00 %
21.06.2023 07:30 19,2 C 18,9 C 16,1 C 96 % 1015,1 hPa 0,0 l/m 0 min 0 min 55 W/m 3,2 km/h (1 Bft) 100,00 %
21.06.2023 07:32 19,3 C 19,4 C 16,1 C 96 % 1015,2 hPa 0,0 l/m 0 min 0 min 56 W/m 6,4 km/h (2 Bft) 100,00 %
21.06.2023 07:34 19,3 C 19,4 C 16,1 C 95 % 1015,2 hPa 0,0 l/m 0 min 0 min 58 W/m 12,9 km/h (3 Bft) 100,00 %
21.06.2023 07:36 19,3 C 19,4 C 16,1 C 95 % 1015,2 hPa 0,0 l/m 0 min 0 min 58 W/m 6,4 km/h (2 Bft) 100,00 %
21.06.2023 07:38 19,4 C 19,4 C 16,1 C 95 % 1015,2 hPa 0,0 l/m 0 min 0 min 82 W/m 9,7 km/h (2 Bft) 100,00 %
21.06.2023 07:40 19,4 C 19,4 C 16,1 C 95 % 1015,2 hPa 0,0 l/m 0 min 0 min 148 W/m 6,4 km/h (2 Bft) 100,00 %
21.06.2023 07:42 19,5 C 19,4 C 16,1 C 95 % 1015,2 hPa 0,0 l/m 2 min 0 min 181 W/m 3,2 km/h (1 Bft) 100,00 %
21.06.2023 07:44 19,6 C 19,4 C 16,7 C 95 % 1015,2 hPa 0,0 l/m 0 min 0 min 167 W/m 6,4 km/h (2 Bft) 100,00 %
21.06.2023 07:46 19,6 C 19,4 C 16,7 C 95 % 1015,2 hPa 0,0 l/m 2 min 0 min 192 W/m 12,9 km/h (3 Bft) 100,00 %
21.06.2023 07:48 19,6 C 20,0 C 16,7 C 95 % 1015,2 hPa 0,0 l/m 2 min 0 min 213 W/m 16,1 km/h (3 Bft) 100,00 %
21.06.2023 07:50 19,7 C 20,0 C 16,7 C 95 % 1015,2 hPa 0,0 l/m 2 min 0 min 221 W/m 9,7 km/h (2 Bft) 100,00 %
21.06.2023 07:52 19,8 C 20,0 C 16,7 C 95 % 1015,3 hPa 0,0 l/m 2 min 0 min 235 W/m 12,9 km/h (3 Bft) 97,83 %
21.06.2023 07:54 19,8 C 20,0 C 16,7 C 95 % 1015,3 hPa 0,0 l/m 2 min 0 min 244 W/m 12,9 km/h (3 Bft) 97,87 %
21.06.2023 07:56 19,8 C 20,0 C 16,7 C 95 % 1015,4 hPa 0,0 l/m 2 min 0 min 255 W/m 12,9 km/h (3 Bft) 97,87 %
21.06.2023 07:58 19,9 C 20,0 C 16,7 C 95 % 1015,4 hPa 0,0 l/m 2 min 0 min 263 W/m 12,9 km/h (3 Bft) 97,87 %
21.06.2023 08:00 19,9 C 20,0 C 16,7 C 95 % 1015,5 hPa 0,0 l/m 2 min 0 min 261 W/m 9,7 km/h (2 Bft) 95,74 %
21.06.2023 08:02 20,1 C 20,0 C 16,7 C 95 % 1015,5 hPa 0,0 l/m 2 min 0 min 265 W/m 12,9 km/h (3 Bft) 95,74 %
21.06.2023 08:04 20,1 C 20,0 C 16,7 C 95 % 1015,5 hPa 0,0 l/m 2 min 0 min 274 W/m 16,1 km/h (3 Bft) 97,96 %
21.06.2023 08:06 20,2 C 20,6 C 16,7 C 95 % 1015,6 hPa 0,0 l/m 2 min 0 min 246 W/m 12,9 km/h (3 Bft) 97,83 %
21.06.2023 08:08 20,3 C 21,1 C 17,2 C 94 % 1015,6 hPa 0,0 l/m 2 min 0 min 272 W/m 9,7 km/h (2 Bft) 97,87 %
21.06.2023 08:10 20,3 C 21,7 C 17,2 C 94 % 1015,6 hPa 0,0 l/m 2 min 0 min 290 W/m 12,9 km/h (3 Bft) 94,29 %
21.06.2023 08:12 20,4 C 22,2 C 17,2 C 94 % 1015,5 hPa 0,0 l/m 2 min 0 min 237 W/m 6,4 km/h (2 Bft) 95,74 %
21.06.2023 08:14 20,6 C 22,8 C 17,2 C 94 % 1015,6 hPa 0,0 l/m 2 min 0 min 277 W/m 6,4 km/h (2 Bft) 95,74 %
21.06.2023 08:16 20,6 C 22,2 C 17,2 C 94 % 1015,7 hPa 0,0 l/m 2 min 0 min 259 W/m 16,1 km/h (3 Bft) 91,49 %
21.06.2023 08:18 20,7 C 22,2 C 17,2 C 94 % 1015,7 hPa 0,0 l/m 0 min 0 min 164 W/m 16,1 km/h (3 Bft) 95,74 %
21.06.2023 08:20 20,8 C 21,7 C 17,2 C 93 % 1015,7 hPa 0,0 l/m 0 min 0 min 131 W/m 19,3 km/h (3 Bft) 93,62 %
21.06.2023 08:22 20,8 C 21,1 C 17,2 C 93 % 1015,7 hPa 0,0 l/m 0 min 0 min 133 W/m 9,7 km/h (2 Bft) 93,62 %
21.06.2023 08:24 20,8 C 21,1 C 17,2 C 93 % 1015,8 hPa 0,0 l/m 0 min 0 min 113 W/m 12,9 km/h (3 Bft) 91,30 %
21.06.2023 08:26 20,8 C 21,1 C 17,2 C 92 % 1015,8 hPa 0,0 l/m 0 min 0 min 115 W/m 16,1 km/h (3 Bft) 91,49 %
21.06.2023 08:28 20,9 C 21,1 C 17,2 C 92 % 1015,8 hPa 0,0 l/m 0 min 0 min 130 W/m 9,7 km/h (2 Bft) 93,62 %
21.06.2023 08:30 20,9 C 21,1 C 17,2 C 92 % 1015,9 hPa 0,0 l/m 0 min 0 min 134 W/m 9,7 km/h (2 Bft) 78,72 %
21.06.2023 08:32 20,9 C 21,1 C 17,8 C 92 % 1015,9 hPa 0,0 l/m 0 min 0 min 160 W/m 9,7 km/h (2 Bft) 57,50 %
21.06.2023 08:34 21,0 C 21,1 C 17,8 C 92 % 1015,9 hPa 0,0 l/m 0 min 0 min 209 W/m 6,4 km/h (2 Bft) 93,62 %
21.06.2023 08:36 21,1 C 21,7 C 17,8 C 92 % 1016,1 hPa 0,0 l/m 2 min 0 min 238 W/m 6,4 km/h (2 Bft) 93,62 %
21.06.2023 08:38 21,1 C 21,7 C 17,8 C 92 % 1016,1 hPa 0,0 l/m 0 min 0 min 208 W/m 3,2 km/h (1 Bft) 95,65 %
21.06.2023 08:40 21,2 C 21,7 C 17,8 C 92 % 1016,1 hPa 0,0 l/m 0 min 0 min 178 W/m 9,7 km/h (2 Bft) 95,74 %
21.06.2023 08:42 21,2 C 21,7 C 17,8 C 92 % 1016,1 hPa 0,0 l/m 0 min 0 min 180 W/m 9,7 km/h (2 Bft) 91,49 %
21.06.2023 08:44 21,3 C 21,7 C 17,8 C 91 % 1016,1 hPa 0,0 l/m 0 min 0 min 229 W/m 9,7 km/h (2 Bft) 93,62 %
21.06.2023 08:46 21,3 C 22,2 C 18,3 C 91 % 1016,1 hPa 0,0 l/m 2 min 0 min 276 W/m 9,7 km/h (2 Bft) 95,74 %
21.06.2023 08:48 21,3 C 22,2 C 18,3 C 91 % 1016,0 hPa 0,0 l/m 2 min 0 min 272 W/m 12,9 km/h (3 Bft) 95,74 %
21.06.2023 08:50 21,4 C 22,2 C 18,3 C 91 % 1016,1 hPa 0,0 l/m 0 min 0 min 231 W/m 9,7 km/h (2 Bft) 95,74 %
21.06.2023 08:52 21,4 C 22,2 C 18,3 C 91 % 1016,2 hPa 0,0 l/m 0 min 0 min 199 W/m 6,4 km/h (2 Bft) 97,83 %
21.06.2023 08:54 21,4 C 22,2 C 18,3 C 91 % 1016,2 hPa 0,0 l/m 0 min 0 min 185 W/m 6,4 km/h (2 Bft) 95,74 %
21.06.2023 08:56 21,5 C 21,7 C 18,3 C 91 % 1016,2 hPa 0,0 l/m 0 min 0 min 159 W/m 3,2 km/h (1 Bft) 96,23 %
21.06.2023 08:58 21,6 C 21,7 C 18,3 C 91 % 1016,1 hPa 0,0 l/m 0 min 0 min 128 W/m 6,4 km/h (2 Bft) 97,87 %
21.06.2023 09:00 21,6 C 21,1 C 18,3 C 90 % 1016,2 hPa 0,0 l/m 0 min 0 min 136 W/m 6,4 km/h (2 Bft) 95,65 %
21.06.2023 09:02 21,5 C 21,1 C 18,3 C 90 % 1016,3 hPa 0,0 l/m 0 min 0 min 149 W/m 12,9 km/h (3 Bft) 97,87 %
21.06.2023 09:04 21,5 C 21,1 C 18,3 C 90 % 1016,3 hPa 0,0 l/m 0 min 0 min 174 W/m 9,7 km/h (2 Bft) 95,74 %
21.06.2023 09:06 21,5 C 22,2 C 18,3 C 90 % 1016,3 hPa 0,0 l/m 0 min 0 min 255 W/m 9,7 km/h (2 Bft) 98,31 %
21.06.2023 09:08 21,6 C 22,8 C 18,3 C 90 % 1016,4 hPa 0,0 l/m 2 min 0 min 366 W/m 6,4 km/h (2 Bft) 100,00 %
21.06.2023 09:10 21,6 C 22,8 C 18,3 C 90 % 1016,3 hPa 0,0 l/m 2 min 0 min 293 W/m 6,4 km/h (2 Bft) 100,00 %
21.06.2023 09:12 21,6 C 22,2 C 18,9 C 89 % 1016,3 hPa 0,0 l/m 0 min 0 min 204 W/m 12,9 km/h (3 Bft) 100,00 %
21.06.2023 09:14 21,6 C 22,2 C 18,9 C 89 % 1016,4 hPa 0,0 l/m 0 min 0 min 252 W/m 6,4 km/h (2 Bft) 97,83 %
21.06.2023 09:16 21,7 C 22,2 C 18,9 C 89 % 1016,4 hPa 0,0 l/m 0 min 0 min 261 W/m 9,7 km/h (2 Bft) 100,00 %
21.06.2023 09:18 21,7 C 22,8 C 18,9 C 89 % 1016,3 hPa 0,0 l/m 0 min 0 min 284 W/m 6,4 km/h (2 Bft) 100,00 %
21.06.2023 09:20 21,8 C 22,8 C 18,9 C 89 % 1016,3 hPa 0,0 l/m 0 min 0 min 269 W/m 6,4 km/h (2 Bft) 100,00 %
21.06.2023 09:22 21,8 C 22,8 C 18,9 C 89 % 1016,3 hPa 0,0 l/m 0 min 0 min 233 W/m 9,7 km/h (2 Bft) 97,87 %
21.06.2023 09:24 21,9 C 22,8 C 18,9 C 89 % 1016,3 hPa 0,0 l/m 0 min 0 min 192 W/m 9,7 km/h (2 Bft) 100,00 %
21.06.2023 09:26 21,9 C 22,2 C 18,9 C 89 % 1016,3 hPa 0,0 l/m 0 min 0 min 184 W/m 16,1 km/h (3 Bft) 100,00 %
21.06.2023 09:28 21,9 C 22,8 C 18,9 C 88 % 1016,3 hPa 0,0 l/m 0 min 0 min 240 W/m 12,9 km/h (3 Bft) 100,00 %
21.06.2023 09:30 21,8 C 22,8 C 18,9 C 88 % 1016,3 hPa 0,0 l/m 0 min 0 min 222 W/m 6,4 km/h (2 Bft) 97,87 %
21.06.2023 09:32 21,9 C 23,9 C 19,4 C 88 % 1016,3 hPa 0,0 l/m 2 min 0 min 520 W/m 3,2 km/h (1 Bft) 95,74 %
21.06.2023 09:34 22,0 C 25,0 C 20,0 C 88 % 1016,4 hPa 0,0 l/m 2 min 0 min 573 W/m 3,2 km/h (1 Bft) 100,00 %
21.06.2023 09:36 22,1 C 26,1 C 20,6 C 88 % 1016,4 hPa 0,0 l/m 2 min 0 min 574 W/m 12,9 km/h (3 Bft) 97,87 %
21.06.2023 09:38 22,2 C 26,1 C 21,1 C 86 % 1016,4 hPa 0,0 l/m 2 min 0 min 579 W/m 9,7 km/h (2 Bft) 100,00 %
21.06.2023 09:40 22,3 C 26,7 C 21,1 C 85 % 1016,4 hPa 0,0 l/m 2 min 0 min 619 W/m 6,4 km/h (2 Bft) 100,00 %
21.06.2023 09:42 22,4 C 26,1 C 21,7 C 85 % 1016,4 hPa 0,0 l/m 2 min 0 min 642 W/m 12,9 km/h (3 Bft) 100,00 %
21.06.2023 09:44 22,6 C 26,1 C 21,7 C 85 % 1016,5 hPa 0,0 l/m 2 min 0 min 348 W/m 12,9 km/h (3 Bft) 95,74 %
21.06.2023 09:46 22,7 C 26,1 C 21,7 C 85 % 1016,5 hPa 0,0 l/m 2 min 0 min 332 W/m 12,9 km/h (3 Bft) 100,00 %
21.06.2023 09:48 22,8 C 26,1 C 21,7 C 84 % 1016,5 hPa 0,0 l/m 2 min 0 min 513 W/m 6,4 km/h (2 Bft) 100,00 %
21.06.2023 09:50 22,9 C 26,1 C 22,2 C 84 % 1016,5 hPa 0,0 l/m 2 min 0 min 664 W/m 12,9 km/h (3 Bft) 97,87 %
21.06.2023 09:52 23,1 C 26,7 C 22,8 C 84 % 1016,5 hPa 0,0 l/m 2 min 0 min 626 W/m 12,9 km/h (3 Bft) 97,87 %
21.06.2023 09:54 23,2 C 27,2 C 22,8 C 83 % 1016,4 hPa 0,0 l/m 2 min 0 min 589 W/m 6,4 km/h (2 Bft) 97,87 %
21.06.2023 09:56 23,4 C 27,8 C 23,3 C 84 % 1016,5 hPa 0,0 l/m 2 min 0 min 623 W/m 16,1 km/h (3 Bft) 100,00 %
21.06.2023 09:58 23,5 C 27,8 C 23,3 C 84 % 1016,5 hPa 0,0 l/m 2 min 0 min 636 W/m 12,9 km/h (3 Bft) 100,00 %
21.06.2023 10:00 23,6 C 27,8 C 23,3 C 83 % 1016,6 hPa 0,0 l/m 2 min 0 min 654 W/m 16,1 km/h (3 Bft) 97,87 %
21.06.2023 10:02 23,7 C 27,2 C 23,3 C 83 % 1016,6 hPa 0,0 l/m 2 min 0 min 659 W/m 9,7 km/h (2 Bft) 100,00 %
21.06.2023 10:04 23,7 C 27,2 C 23,3 C 82 % 1016,6 hPa 0,0 l/m 2 min 0 min 704 W/m 12,9 km/h (3 Bft) 97,92 %
21.06.2023 10:06 23,7 C 26,1 C 22,8 C 82 % 1016,6 hPa 0,0 l/m 0 min 0 min 297 W/m 12,9 km/h (3 Bft) 100,00 %
21.06.2023 10:08 23,7 C 26,1 C 22,8 C 82 % 1016,6 hPa 0,0 l/m 0 min 0 min 223 W/m 16,1 km/h (3 Bft) 97,14 %
21.06.2023 10:10 23,8 C 26,7 C 23,3 C 82 % 1016,6 hPa 0,0 l/m 2 min 0 min 580 W/m 12,9 km/h (3 Bft) 100,00 %
21.06.2023 10:12 23,8 C 26,7 C 23,3 C 82 % 1016,6 hPa 0,0 l/m 2 min 0 min 752 W/m 12,9 km/h (3 Bft) 100,00 %
21.06.2023 10:14 23,8 C 26,1 C 22,8 C 81 % 1016,6 hPa 0,0 l/m 2 min 0 min 696 W/m 9,7 km/h (2 Bft) 100,00 %
21.06.2023 10:16 23,8 C 26,1 C 22,8 C 82 % 1016,6 hPa 0,0 l/m 2 min 0 min 395 W/m 6,4 km/h (2 Bft) 100,00 %
21.06.2023 10:18 23,9 C 26,7 C 23,3 C 82 % 1016,6 hPa 0,0 l/m 2 min 0 min 719 W/m 12,9 km/h (3 Bft) 97,87 %
21.06.2023 10:20 23,9 C 26,7 C 23,3 C 82 % 1016,6 hPa 0,0 l/m 2 min 0 min 730 W/m 19,3 km/h (3 Bft) 97,87 %
21.06.2023 10:22 24,0 C 26,7 C 23,3 C 81 % 1016,6 hPa 0,0 l/m 0 min 0 min 345 W/m 6,4 km/h (2 Bft) 97,87 %
21.06.2023 10:24 24,1 C 26,1 C 23,3 C 81 % 1016,6 hPa 0,0 l/m 2 min 0 min 693 W/m 9,7 km/h (2 Bft) 97,87 %
21.06.2023 10:26 24,0 C 25,6 C 22,8 C 80 % 1016,7 hPa 0,0 l/m 2 min 0 min 492 W/m 12,9 km/h (3 Bft) 95,74 %
21.06.2023 10:28 23,9 C 25,0 C 22,2 C 80 % 1016,7 hPa 0,0 l/m 0 min 0 min 244 W/m 3,2 km/h (1 Bft) 95,65 %
21.06.2023 10:30 23,9 C 24,4 C 21,7 C 80 % 1016,7 hPa 0,0 l/m 0 min 0 min 246 W/m 9,7 km/h (2 Bft) 95,74 %
21.06.2023 10:32 23,9 C 23,9 C 21,1 C 80 % 1016,7 hPa 0,0 l/m 0 min 0 min 193 W/m 3,2 km/h (1 Bft) 95,74 %
21.06.2023 10:34 23,8 C 23,9 C 21,1 C 80 % 1016,6 hPa 0,0 l/m 0 min 0 min 247 W/m 16,1 km/h (3 Bft) 95,74 %
21.06.2023 10:36 23,8 C 23,9 C 20,6 C 80 % 1016,5 hPa 0,0 l/m 0 min 0 min 270 W/m 12,9 km/h (3 Bft) 95,74 %
21.06.2023 10:38 23,8 C 23,9 C 20,6 C 80 % 1016,5 hPa 0,0 l/m 0 min 0 min 235 W/m 12,9 km/h (3 Bft) 95,74 %
21.06.2023 10:40 23,7 C 23,9 C 21,1 C 81 % 1016,6 hPa 0,0 l/m 0 min 0 min 286 W/m 16,1 km/h (3 Bft) 95,74 %
21.06.2023 10:42 23,7 C 24,4 C 21,1 C 81 % 1016,6 hPa 0,0 l/m 0 min 0 min 327 W/m 6,4 km/h (2 Bft) 93,48 %
21.06.2023 10:44 23,7 C 23,9 C 21,1 C 81 % 1016,6 hPa 0,0 l/m 0 min 0 min 286 W/m 9,7 km/h (2 Bft) 95,74 %
21.06.2023 10:46 23,7 C 23,9 C 21,1 C 81 % 1016,6 hPa 0,0 l/m 0 min 0 min 265 W/m 9,7 km/h (2 Bft) 93,62 %
21.06.2023 10:48 23,7 C 23,9 C 21,7 C 80 % 1016,6 hPa 0,0 l/m 2 min 0 min 449 W/m 19,3 km/h (3 Bft) 95,74 %
21.06.2023 10:50 23,7 C 25,0 C 22,8 C 80 % 1016,6 hPa 0,0 l/m 2 min 0 min 740 W/m 16,1 km/h (3 Bft) 97,87 %
21.06.2023 10:52 23,7 C 25,0 C 22,8 C 80 % 1016,7 hPa 0,0 l/m 2 min 0 min 800 W/m 22,5 km/h (4 Bft) 97,87 %
21.06.2023 10:54 23,7 C 25,6 C 22,8 C 80 % 1016,7 hPa 0,0 l/m 2 min 0 min 772 W/m 6,4 km/h (2 Bft) 97,87 %
21.06.2023 10:56 23,8 C 26,1 C 22,8 C 79 % 1016,7 hPa 0,0 l/m 2 min 0 min 753 W/m 19,3 km/h (3 Bft) 95,65 %
21.06.2023 10:58 23,9 C 26,1 C 22,8 C 79 % 1016,7 hPa 0,0 l/m 2 min 0 min 786 W/m 19,3 km/h (3 Bft) 97,87 %
21.06.2023 11:00 23,9 C 26,1 C 22,8 C 79 % 1016,7 hPa 0,0 l/m 2 min 0 min 816 W/m 12,9 km/h (3 Bft) 95,74 %
21.06.2023 11:02 24,0 C 26,1 C 22,8 C 79 % 1016,6 hPa 0,0 l/m 2 min 0 min 709 W/m 12,9 km/h (3 Bft) 95,74 %
21.06.2023 11:04 24,1 C 26,1 C 22,8 C 79 % 1016,7 hPa 0,0 l/m 2 min 0 min 635 W/m 12,9 km/h (3 Bft) 97,62 %
21.06.2023 11:06 24,2 C 26,1 C 22,8 C 79 % 1016,7 hPa 0,0 l/m 2 min 0 min 635 W/m 16,1 km/h (3 Bft) 98,28 %
21.06.2023 11:08 24,2 C 26,1 C 22,8 C 79 % 1016,7 hPa 0,0 l/m 2 min 0 min 580 W/m 25,7 km/h (4 Bft) 97,14 %
21.06.2023 11:10 24,3 C 26,7 C 22,8 C 79 % 1016,7 hPa 0,0 l/m 2 min 0 min 455 W/m 16,1 km/h (3 Bft) 97,87 %
21.06.2023 11:12 24,4 C 26,1 C 22,8 C 78 % 1016,7 hPa 0,0 l/m 2 min 0 min 453 W/m 9,7 km/h (2 Bft) 100,00 %
21.06.2023 11:14 24,6 C 26,1 C 22,2 C 78 % 1016,8 hPa 0,0 l/m 2 min 0 min 475 W/m 12,9 km/h (3 Bft) 100,00 %
21.06.2023 11:16 24,7 C 26,1 C 22,2 C 77 % 1016,7 hPa 0,0 l/m 2 min 0 min 427 W/m 19,3 km/h (3 Bft) 97,87 %
21.06.2023 11:18 24,7 C 25,6 C 22,2 C 77 % 1016,8 hPa 0,0 l/m 0 min 0 min 348 W/m 16,1 km/h (3 Bft) 97,87 %
21.06.2023 11:20 24,8 C 25,0 C 21,7 C 77 % 1016,8 hPa 0,0 l/m 0 min 0 min 230 W/m 12,9 km/h (3 Bft) 100,00 %
21.06.2023 11:22 24,8 C 25,0 C 21,7 C 77 % 1016,8 hPa 0,0 l/m 0 min 0 min 195 W/m 9,7 km/h (2 Bft) 95,65 %
21.06.2023 11:24 24,8 C 25,6 C 21,7 C 77 % 1016,8 hPa 0,0 l/m 0 min 0 min 318 W/m 6,4 km/h (2 Bft) 97,87 %
21.06.2023 11:26 24,8 C 25,0 C 21,7 C 77 % 1016,8 hPa 0,0 l/m 0 min 0 min 282 W/m 9,7 km/h (2 Bft) 97,87 %
21.06.2023 11:28 24,8 C 25,0 C 21,7 C 77 % 1016,8 hPa 0,0 l/m 0 min 0 min 176 W/m 9,7 km/h (2 Bft) 100,00 %
21.06.2023 11:30 24,8 C 26,1 C 22,2 C 77 % 1016,8 hPa 0,0 l/m 0 min 0 min 176 W/m 12,9 km/h (3 Bft) 100,00 %
21.06.2023 11:32 24,8 C 26,1 C 22,8 C 77 % 1016,9 hPa 0,0 l/m 0 min 0 min 176 W/m 6,4 km/h (2 Bft) 100,00 %
21.06.2023 11:34 24,9 C 26,7 C 22,8 C 77 % 1016,9 hPa 0,0 l/m 0 min 0 min 176 W/m 3,2 km/h (1 Bft) 97,87 %
21.06.2023 11:36 25,0 C 26,7 C 22,8 C 77 % 1016,8 hPa 0,0 l/m 0 min 0 min 187 W/m 9,7 km/h (2 Bft) 100,00 %
21.06.2023 11:38 25,0 C 25,6 C 22,2 C 76 % 1016,9 hPa 0,0 l/m 0 min 0 min 236 W/m 6,4 km/h (2 Bft) 100,00 %
21.06.2023 11:40 24,9 C 25,0 C 21,7 C 76 % 1016,8 hPa 0,0 l/m 0 min 0 min 213 W/m 6,4 km/h (2 Bft) 97,87 %
21.06.2023 11:42 24,9 C 25,0 C 21,7 C 76 % 1016,9 hPa 0,0 l/m 0 min 0 min 184 W/m 6,4 km/h (2 Bft) 97,87 %
21.06.2023 11:44 24,9 C 25,6 C 22,2 C 77 % 1016,9 hPa 0,0 l/m 0 min 0 min 192 W/m 6,4 km/h (2 Bft) 97,87 %
21.06.2023 11:46 24,9 C 26,7 C 23,3 C 76 % 1016,9 hPa 0,0 l/m 2 min 0 min 839 W/m 6,4 km/h (2 Bft) 97,87 %
21.06.2023 11:48 25,0 C 27,2 C 23,9 C 75 % 1016,9 hPa 0,0 l/m 2 min 0 min 914 W/m 12,9 km/h (3 Bft) 93,62 %
21.06.2023 11:50 25,1 C 27,8 C 25,0 C 75 % 1016,9 hPa 0,0 l/m 2 min 0 min 968 W/m 12,9 km/h (3 Bft) 97,83 %
21.06.2023 11:52 25,2 C 28,3 C 25,0 C 76 % 1016,9 hPa 0,0 l/m 2 min 0 min 644 W/m 12,9 km/h (3 Bft) 97,87 %
21.06.2023 11:54 25,4 C 28,9 C 25,6 C 76 % 1017,0 hPa 0,0 l/m 2 min 0 min 812 W/m 9,7 km/h (2 Bft) 98,11 %
21.06.2023 11:56 25,6 C 28,9 C 25,0 C 74 % 1016,9 hPa 0,0 l/m 2 min 0 min 942 W/m 9,7 km/h (2 Bft) 97,87 %
21.06.2023 11:58 25,8 C 28,9 C 25,0 C 74 % 1017,0 hPa 0,0 l/m 2 min 0 min 942 W/m 9,7 km/h (2 Bft) 97,87 %
21.06.2023 12:00 25,9 C 28,9 C 25,0 C 75 % 1017,1 hPa 0,0 l/m 2 min 0 min 945 W/m 9,7 km/h (2 Bft) 97,87 %
21.06.2023 12:02 25,9 C 29,4 C 25,6 C 74 % 1017,1 hPa 0,0 l/m 2 min 0 min 947 W/m 12,9 km/h (3 Bft) 95,74 %
21.06.2023 12:04 26,1 C 28,9 C 25,6 C 74 % 1017,1 hPa 0,0 l/m 2 min 0 min 969 W/m 19,3 km/h (3 Bft) 97,87 %
21.06.2023 12:08 26,1 C 27,2 C 23,9 C 72 % 1017,2 hPa 0,0 l/m 0 min 0 min 389 W/m 16,1 km/h (3 Bft) 97,92 %
21.06.2023 12:10 26,0 C 27,2 C 23,9 C 72 % 1017,1 hPa 0,0 l/m 0 min 0 min 230 W/m 19,3 km/h (3 Bft) 95,74 %
21.06.2023 12:12 26,0 C 27,8 C 24,4 C 72 % 1017,2 hPa 0,0 l/m 0 min 0 min 232 W/m 6,4 km/h (2 Bft) 95,74 %
21.06.2023 12:16 25,9 C 29,4 C 27,2 C 73 % 1017,2 hPa 0,0 l/m 4 min 0 min 864 W/m 16,1 km/h (3 Bft) 94,68 %
21.06.2023 12:18 26,0 C 29,4 C 28,3 C 72 % 1017,2 hPa 0,0 l/m 2 min 0 min 987 W/m 6,4 km/h (2 Bft) 95,74 %
21.06.2023 12:20 26,1 C 28,9 C 27,8 C 73 % 1017,2 hPa 0,0 l/m 2 min 0 min 853 W/m 9,7 km/h (2 Bft) 95,74 %
21.06.2023 12:22 26,1 C 27,8 C 26,1 C 71 % 1017,2 hPa 0,0 l/m 2 min 0 min 596 W/m 25,7 km/h (4 Bft) 95,65 %
21.06.2023 12:24 26,1 C 27,8 C 26,1 C 71 % 1017,2 hPa 0,0 l/m 0 min 0 min 373 W/m 9,7 km/h (2 Bft) 97,87 %
21.06.2023 12:26 26,1 C 27,2 C 25,0 C 71 % 1017,2 hPa 0,0 l/m 0 min 0 min 279 W/m 6,4 km/h (2 Bft) 95,74 %
21.06.2023 12:28 26,1 C 26,1 C 24,4 C 70 % 1017,2 hPa 0,0 l/m 0 min 0 min 258 W/m 16,1 km/h (3 Bft) 95,74 %
21.06.2023 12:30 25,9 C 26,1 C 23,3 C 71 % 1017,3 hPa 0,0 l/m 0 min 0 min 230 W/m 16,1 km/h (3 Bft) 95,74 %
21.06.2023 12:32 25,8 C 27,2 C 24,4 C 72 % 1017,3 hPa 0,0 l/m 2 min 0 min 477 W/m 9,7 km/h (2 Bft) 97,87 %
21.06.2023 12:34 25,8 C 28,3 C 26,1 C 72 % 1017,3 hPa 0,0 l/m 2 min 0 min 912 W/m 12,9 km/h (3 Bft) 95,74 %
21.06.2023 12:36 25,8 C 28,9 C 27,2 C 72 % 1017,3 hPa 0,0 l/m 2 min 0 min 904 W/m 12,9 km/h (3 Bft) 97,83 %
21.06.2023 12:38 25,9 C 29,4 C 27,8 C 71 % 1017,3 hPa 0,0 l/m 2 min 0 min 865 W/m 12,9 km/h (3 Bft) 95,74 %
21.06.2023 12:40 26,1 C 30,6 C 28,3 C 71 % 1017,3 hPa 0,0 l/m 2 min 0 min 917 W/m 9,7 km/h (2 Bft) 97,87 %
21.06.2023 12:42 26,2 C 30,6 C 29,4 C 71 % 1017,3 hPa 0,0 l/m 2 min 0 min 971 W/m 6,4 km/h (2 Bft) 97,87 %
21.06.2023 12:44 26,3 C 30,6 C 29,4 C 70 % 1017,4 hPa 0,0 l/m 2 min 0 min 882 W/m 19,3 km/h (3 Bft) 97,87 %
21.06.2023 12:46 26,4 C 29,4 C 28,9 C 69 % 1017,3 hPa 0,0 l/m 2 min 0 min 818 W/m 19,3 km/h (3 Bft) 95,74 %
21.06.2023 12:48 26,5 C 30,0 C 28,9 C 69 % 1017,3 hPa 0,0 l/m 2 min 0 min 793 W/m 19,3 km/h (3 Bft) 97,87 %
21.06.2023 12:50 26,5 C 28,3 C 27,2 C 68 % 1017,4 hPa 0,0 l/m 2 min 0 min 793 W/m 19,3 km/h (3 Bft) 100,00 %
21.06.2023 12:52 26,4 C 27,2 C 26,1 C 69 % 1017,4 hPa 0,0 l/m 0 min 0 min 295 W/m 12,9 km/h (3 Bft) 100,00 %
21.06.2023 12:54 26,4 C 27,8 C 26,7 C 68 % 1017,3 hPa 0,0 l/m 0 min 0 min 353 W/m 16,1 km/h (3 Bft) 97,87 %
21.06.2023 12:56 26,3 C 27,2 C 25,6 C 68 % 1017,4 hPa 0,0 l/m 0 min 0 min 259 W/m 16,1 km/h (3 Bft) 100,00 %
21.06.2023 12:58 26,2 C 27,2 C 25,6 C 66 % 1017,4 hPa 0,0 l/m 0 min 0 min 241 W/m 12,9 km/h (3 Bft) 100,00 %
21.06.2023 13:00 26,2 C 27,2 C 25,6 C 67 % 1017,4 hPa 0,0 l/m 0 min 0 min 338 W/m 9,7 km/h (2 Bft) 100,00 %
21.06.2023 13:04 26,3 C 27,8 C 25,6 C 68 % 1017,4 hPa 0,0 l/m 4 min 0 min 809 W/m 16,1 km/h (3 Bft) 96,30 %
21.06.2023 13:06 26,2 C 27,2 C 25,6 C 66 % 1017,4 hPa 0,0 l/m 2 min 0 min 809 W/m 12,9 km/h (3 Bft) 97,92 %
21.06.2023 13:08 26,2 C 27,2 C 24,4 C 66 % 1017,4 hPa 0,0 l/m 2 min 0 min 547 W/m 19,3 km/h (3 Bft) 97,87 %
21.06.2023 13:10 26,1 C 27,2 C 24,4 C 66 % 1017,4 hPa 0,0 l/m 0 min 0 min 274 W/m 12,9 km/h (3 Bft) 95,65 %
21.06.2023 13:12 26,1 C 28,9 C 25,6 C 67 % 1017,4 hPa 0,0 l/m 2 min 0 min 734 W/m 6,4 km/h (2 Bft) 97,87 %
21.06.2023 13:14 26,2 C 29,4 C 26,1 C 67 % 1017,5 hPa 0,0 l/m 2 min 0 min 955 W/m 16,1 km/h (3 Bft) 97,92 %
21.06.2023 13:16 26,3 C 30,6 C 26,7 C 68 % 1017,5 hPa 0,0 l/m 2 min 0 min 938 W/m 12,9 km/h (3 Bft) 95,74 %
21.06.2023 13:18 26,5 C 31,1 C 26,7 C 67 % 1017,5 hPa 0,0 l/m 2 min 0 min 926 W/m 12,9 km/h (3 Bft) 97,87 %
21.06.2023 13:20 26,7 C 31,1 C 26,7 C 68 % 1017,5 hPa 0,0 l/m 2 min 0 min 946 W/m 16,1 km/h (3 Bft) 97,87 %
21.06.2023 13:22 26,8 C 30,0 C 26,1 C 65 % 1017,4 hPa 0,0 l/m 2 min 0 min 893 W/m 12,9 km/h (3 Bft) 97,87 %
21.06.2023 13:24 26,9 C 31,1 C 26,7 C 66 % 1017,4 hPa 0,0 l/m 2 min 0 min 908 W/m 16,1 km/h (3 Bft) 97,83 %
21.06.2023 13:26 27,1 C 31,7 C 26,7 C 66 % 1017,4 hPa 0,0 l/m 2 min 0 min 964 W/m 12,9 km/h (3 Bft) 97,87 %
21.06.2023 13:28 27,2 C 32,2 C 27,8 C 66 % 1017,5 hPa 0,0 l/m 2 min 0 min 957 W/m 12,9 km/h (3 Bft) 97,87 %
21.06.2023 13:30 27,4 C 32,2 C 28,9 C 64 % 1017,4 hPa 0,0 l/m 2 min 0 min 971 W/m 19,3 km/h (3 Bft) 97,87 %
21.06.2023 13:32 27,6 C 32,2 C 30,0 C 65 % 1017,4 hPa 0,0 l/m 2 min 0 min 996 W/m 16,1 km/h (3 Bft) 97,87 %
21.06.2023 13:34 27,6 C 32,2 C 30,0 C 64 % 1017,4 hPa 0,0 l/m 2 min 0 min 998 W/m 12,9 km/h (3 Bft) 95,74 %
21.06.2023 13:36 27,6 C 32,8 C 30,6 C 64 % 1017,5 hPa 0,0 l/m 2 min 0 min 1010 W/m 6,4 km/h (2 Bft) 97,83 %
21.06.2023 13:38 27,7 C 31,7 C 30,6 C 63 % 1017,4 hPa 0,0 l/m 2 min 0 min 1004 W/m 19,3 km/h (3 Bft) 97,87 %
21.06.2023 13:40 27,8 C 32,2 C 30,0 C 62 % 1017,4 hPa 0,0 l/m 2 min 0 min 1013 W/m 12,9 km/h (3 Bft) 95,74 %
21.06.2023 13:42 27,8 C 32,8 C 31,1 C 63 % 1017,4 hPa 0,0 l/m 2 min 0 min 1024 W/m 12,9 km/h (3 Bft) 97,87 %
21.06.2023 13:44 27,9 C 32,2 C 31,1 C 63 % 1017,4 hPa 0,0 l/m 2 min 0 min 1062 W/m 16,1 km/h (3 Bft) 97,87 %
21.06.2023 13:46 28,0 C 32,2 C 31,1 C 63 % 1017,4 hPa 0,0 l/m 2 min 0 min 1012 W/m 16,1 km/h (3 Bft) 100,00 %
21.06.2023 13:48 28,0 C 32,2 C 31,1 C 63 % 1017,4 hPa 0,0 l/m 2 min 0 min 993 W/m 16,1 km/h (3 Bft) 100,00 %
21.06.2023 13:50 28,1 C 32,2 C 30,6 C 63 % 1017,4 hPa 0,0 l/m 2 min 0 min 964 W/m 12,9 km/h (3 Bft) 97,83 %
21.06.2023 13:52 28,1 C 33,3 C 31,1 C 63 % 1017,5 hPa 0,0 l/m 2 min 0 min 982 W/m 6,4 km/h (2 Bft) 100,00 %
21.06.2023 13:54 28,1 C 30,6 C 29,4 C 63 % 1017,5 hPa 0,0 l/m 2 min 0 min 715 W/m 12,9 km/h (3 Bft) 100,00 %
21.06.2023 13:56 28,1 C 30,6 C 27,2 C 63 % 1017,5 hPa 0,0 l/m 0 min 0 min 355 W/m 9,7 km/h (2 Bft) 100,00 %
21.06.2023 13:58 27,9 C 32,2 C 27,2 C 63 % 1017,5 hPa 0,0 l/m 2 min 0 min 978 W/m 12,9 km/h (3 Bft) 100,00 %
21.06.2023 14:00 28,0 C 32,2 C 26,7 C 64 % 1017,5 hPa 0,0 l/m 2 min 0 min 867 W/m 12,9 km/h (3 Bft) 100,00 %
21.06.2023 14:02 27,9 C 30,6 C 26,1 C 63 % 1017,5 hPa 0,0 l/m 2 min 0 min 810 W/m 12,9 km/h (3 Bft) 100,00 %
21.06.2023 14:04 27,9 C 31,7 C 26,1 C 64 % 1017,5 hPa 0,0 l/m 2 min 0 min 810 W/m 12,9 km/h (3 Bft) 97,87 %
21.06.2023 14:06 28,0 C 31,7 C 25,6 C 65 % 1017,5 hPa 0,0 l/m 2 min 0 min 938 W/m 16,1 km/h (3 Bft) 100,00 %
21.06.2023 14:08 28,1 C 32,2 C 25,0 C 64 % 1017,5 hPa 0,0 l/m 2 min 0 min 958 W/m 16,1 km/h (3 Bft) 100,00 %
21.06.2023 14:10 28,0 C 30,0 C 24,4 C 63 % 1017,5 hPa 0,0 l/m 2 min 0 min 787 W/m 16,1 km/h (3 Bft) 97,87 %
21.06.2023 14:12 27,9 C 29,4 C 23,9 C 62 % 1017,6 hPa 0,0 l/m 0 min 0 min 274 W/m 16,1 km/h (3 Bft) 100,00 %
21.06.2023 14:14 27,8 C 28,3 C 23,3 C 63 % 1017,6 hPa 0,0 l/m 0 min 0 min 362 W/m 6,4 km/h (2 Bft) 97,87 %
21.06.2023 14:16 27,7 C 27,8 C 23,3 C 63 % 1017,6 hPa 0,0 l/m 0 min 0 min 310 W/m 12,9 km/h (3 Bft) 95,65 %
21.06.2023 14:18 27,5 C 28,9 C 23,3 C 63 % 1017,6 hPa 0,0 l/m 2 min 0 min 554 W/m 12,9 km/h (3 Bft) 97,87 %
21.06.2023 14:20 27,3 C 28,3 C 23,9 C 63 % 1017,7 hPa 0,0 l/m 2 min 0 min 554 W/m 9,7 km/h (2 Bft) 95,74 %
21.06.2023 14:22 27,3 C 30,6 C 23,9 C 65 % 1017,7 hPa 0,0 l/m 2 min 0 min 463 W/m 16,1 km/h (3 Bft) 95,74 %
21.06.2023 14:24 27,3 C 31,7 C 23,9 C 64 % 1017,6 hPa 0,0 l/m 2 min 0 min 979 W/m 12,9 km/h (3 Bft) 97,87 %
21.06.2023 14:26 27,4 C 32,2 C 23,9 C 65 % 1017,6 hPa 0,0 l/m 2 min 0 min 890 W/m 12,9 km/h (3 Bft) 95,74 %
21.06.2023 14:28 27,6 C 32,8 C 23,9 C 65 % 1017,6 hPa 0,0 l/m 2 min 0 min 890 W/m 9,7 km/h (2 Bft) 95,65 %
21.06.2023 14:30 27,7 C 32,2 C 23,9 C 64 % 1017,6 hPa 0,0 l/m 2 min 0 min 919 W/m 16,1 km/h (3 Bft) 97,87 %
21.06.2023 14:32 27,7 C 31,7 C 23,3 C 63 % 1017,6 hPa 0,0 l/m 2 min 0 min 946 W/m 16,1 km/h (3 Bft) 97,87 %
21.06.2023 14:34 27,8 C 31,7 C 23,3 C 62 % 1017,6 hPa 0,0 l/m 2 min 0 min 447 W/m 16,1 km/h (3 Bft) 97,87 %
21.06.2023 14:36 27,8 C 32,2 C 23,3 C 62 % 1017,7 hPa 0,0 l/m 2 min 0 min 863 W/m 12,9 km/h (3 Bft) 97,87 %
21.06.2023 14:38 27,9 C 31,1 C 23,3 C 62 % 1017,7 hPa 0,0 l/m 2 min 0 min 941 W/m 12,9 km/h (3 Bft) 97,87 %
21.06.2023 14:40 27,9 C 30,0 C 23,3 C 60 % 1017,7 hPa 0,0 l/m 2 min 0 min 460 W/m 6,4 km/h (2 Bft) 93,62 %
21.06.2023 14:42 27,9 C 31,7 C 23,9 C 61 % 1017,7 hPa 0,0 l/m 2 min 0 min 882 W/m 9,7 km/h (2 Bft) 93,48 %
21.06.2023 14:44 28,0 C 32,8 C 23,9 C 62 % 1017,7 hPa 0,0 l/m 2 min 0 min 964 W/m 6,4 km/h (2 Bft) 95,74 %
21.06.2023 14:46 28,2 C 33,3 C 23,9 C 62 % 1017,7 hPa 0,0 l/m 2 min 0 min 953 W/m 16,1 km/h (3 Bft) 95,74 %
21.06.2023 14:48 28,4 C 33,9 C 24,4 C 61 % 1017,7 hPa 0,0 l/m 2 min 0 min 962 W/m 12,9 km/h (3 Bft) 93,62 %
21.06.2023 14:50 28,5 C 31,7 C 24,4 C 60 % 1017,7 hPa 0,0 l/m 2 min 0 min 839 W/m 16,1 km/h (3 Bft) 95,74 %
21.06.2023 14:52 28,5 C 31,1 C 23,9 C 59 % 1017,7 hPa 0,0 l/m 0 min 0 min 243 W/m 6,4 km/h (2 Bft) 95,74 %
21.06.2023 14:54 28,4 C 30,0 C 23,9 C 59 % 1017,7 hPa 0,0 l/m 0 min 0 min 255 W/m 9,7 km/h (2 Bft) 97,87 %
21.06.2023 14:56 28,4 C 31,7 C 23,9 C 60 % 1017,7 hPa 0,0 l/m 2 min 0 min 552 W/m 6,4 km/h (2 Bft) 97,83 %
21.06.2023 14:58 28,5 C 31,7 C 23,9 C 61 % 1017,7 hPa 0,0 l/m 2 min 0 min 998 W/m 12,9 km/h (3 Bft) 97,87 %
21.06.2023 15:00 28,5 C 32,2 C 23,9 C 60 % 1017,7 hPa 0,0 l/m 0 min 0 min 435 W/m 16,1 km/h (3 Bft) 95,74 %
21.06.2023 15:02 28,5 C 32,2 C 23,9 C 59 % 1017,7 hPa 0,0 l/m 2 min 0 min 841 W/m 9,7 km/h (2 Bft) 97,87 %
21.06.2023 15:04 28,6 C 33,3 C 23,9 C 60 % 1017,7 hPa 0,0 l/m 2 min 0 min 649 W/m 16,1 km/h (3 Bft) 97,62 %
21.06.2023 15:06 28,7 C 32,2 C 23,9 C 59 % 1017,7 hPa 0,0 l/m 2 min 0 min 908 W/m 16,1 km/h (3 Bft) 98,46 %
21.06.2023 15:08 28,7 C 30,0 C 23,3 C 58 % 1017,8 hPa 0,0 l/m 0 min 0 min 345 W/m 12,9 km/h (3 Bft) 94,29 %
21.06.2023 15:10 28,6 C 30,0 C 23,3 C 58 % 1017,8 hPa 0,0 l/m 0 min 0 min 220 W/m 16,1 km/h (3 Bft) 97,87 %
21.06.2023 15:12 28,4 C 31,7 C 23,3 C 59 % 1017,7 hPa 0,0 l/m 2 min 0 min 594 W/m 16,1 km/h (3 Bft) 97,87 %
21.06.2023 15:14 28,5 C 32,2 C 23,3 C 58 % 1017,8 hPa 0,0 l/m 2 min 0 min 915 W/m 19,3 km/h (3 Bft) 97,87 %
21.06.2023 15:16 28,5 C 32,2 C 23,3 C 59 % 1017,8 hPa 0,0 l/m 2 min 0 min 921 W/m 6,4 km/h (2 Bft) 95,74 %
21.06.2023 15:18 28,6 C 33,3 C 23,9 C 59 % 1017,8 hPa 0,0 l/m 2 min 0 min 948 W/m 12,9 km/h (3 Bft) 97,87 %
21.06.2023 15:20 28,6 C 33,3 C 23,9 C 59 % 1017,8 hPa 0,0 l/m 2 min 0 min 956 W/m 12,9 km/h (3 Bft) 97,87 %
21.06.2023 15:22 28,7 C 33,3 C 24,4 C 60 % 1017,8 hPa 0,0 l/m 2 min 0 min 934 W/m 9,7 km/h (2 Bft) 95,65 %
21.06.2023 15:24 28,8 C 33,3 C 24,4 C 61 % 1017,8 hPa 0,0 l/m 2 min 0 min 924 W/m 12,9 km/h (3 Bft) 97,87 %
21.06.2023 15:26 28,9 C 33,9 C 23,9 C 59 % 1017,8 hPa 0,0 l/m 2 min 0 min 935 W/m 9,7 km/h (2 Bft) 100,00 %
21.06.2023 15:28 29,0 C 32,2 C 23,9 C 58 % 1017,8 hPa 0,0 l/m 2 min 0 min 923 W/m 16,1 km/h (3 Bft) 97,87 %
21.06.2023 15:30 29,0 C 31,1 C 23,9 C 57 % 1017,8 hPa 0,0 l/m 0 min 0 min 302 W/m 19,3 km/h (3 Bft) 100,00 %
21.06.2023 15:32 28,9 C 30,6 C 23,3 C 57 % 1017,8 hPa 0,0 l/m 0 min 0 min 276 W/m 12,9 km/h (3 Bft) 100,00 %
21.06.2023 15:34 28,8 C 30,6 C 23,3 C 58 % 1017,8 hPa 0,0 l/m 0 min 0 min 265 W/m 12,9 km/h (3 Bft) 100,00 %
21.06.2023 15:36 28,8 C 31,1 C 23,9 C 58 % 1017,9 hPa 0,0 l/m 0 min 0 min 348 W/m 16,1 km/h (3 Bft) 100,00 %
21.06.2023 15:38 28,7 C 31,1 C 23,9 C 57 % 1017,8 hPa 0,0 l/m 2 min 0 min 896 W/m 16,1 km/h (3 Bft) 100,00 %
21.06.2023 15:40 28,7 C 32,2 C 23,9 C 59 % 1017,9 hPa 0,0 l/m 2 min 0 min 809 W/m 16,1 km/h (3 Bft) 97,87 %
21.06.2023 15:42 28,8 C 32,2 C 23,9 C 58 % 1017,9 hPa 0,0 l/m 2 min 0 min 911 W/m 19,3 km/h (3 Bft) 97,87 %
21.06.2023 15:44 28,8 C 31,1 C 23,3 C 57 % 1017,9 hPa 0,0 l/m 2 min 0 min 892 W/m 9,7 km/h (2 Bft) 97,87 %
21.06.2023 15:46 28,7 C 29,4 C 23,3 C 57 % 1017,8 hPa 0,0 l/m 0 min 0 min 282 W/m 6,4 km/h (2 Bft) 97,87 %
21.06.2023 15:48 28,7 C 28,9 C 23,9 C 58 % 1017,8 hPa 0,0 l/m 0 min 0 min 243 W/m 9,7 km/h (2 Bft) 97,83 %
21.06.2023 15:50 28,6 C 28,3 C 23,3 C 56 % 1017,7 hPa 0,0 l/m 0 min 0 min 213 W/m 12,9 km/h (3 Bft) 97,87 %
21.06.2023 15:52 28,4 C 29,4 C 23,3 C 57 % 1017,7 hPa 0,0 l/m 0 min 0 min 217 W/m 6,4 km/h (2 Bft) 93,62 %
21.06.2023 15:54 28,4 C 30,6 C 23,9 C 58 % 1017,8 hPa 0,0 l/m 2 min 0 min 925 W/m 6,4 km/h (2 Bft) 97,87 %
21.06.2023 15:56 28,4 C 31,7 C 23,9 C 58 % 1017,8 hPa 0,0 l/m 2 min 0 min 916 W/m 16,1 km/h (3 Bft) 97,87 %
21.06.2023 15:58 28,4 C 32,2 C 23,9 C 58 % 1017,8 hPa 0,0 l/m 2 min 0 min 915 W/m 19,3 km/h (3 Bft) 97,87 %
21.06.2023 16:00 28,5 C 31,7 C 23,9 C 57 % 1017,8 hPa 0,0 l/m 2 min 0 min 923 W/m 16,1 km/h (3 Bft) 97,87 %
21.06.2023 16:02 28,6 C 32,2 C 23,9 C 58 % 1017,8 hPa 0,0 l/m 2 min 0 min 917 W/m 12,9 km/h (3 Bft) 97,87 %
21.06.2023 16:04 28,7 C 33,3 C 24,4 C 58 % 1017,8 hPa 0,0 l/m 2 min 0 min 877 W/m 9,7 km/h (2 Bft) 97,87 %
21.06.2023 16:06 28,8 C 33,3 C 24,4 C 58 % 1017,8 hPa 0,0 l/m 2 min 0 min 857 W/m 16,1 km/h (3 Bft) 95,83 %
21.06.2023 16:08 28,9 C 32,8 C 24,4 C 57 % 1017,8 hPa 0,0 l/m 2 min 0 min 782 W/m 12,9 km/h (3 Bft) 95,74 %
21.06.2023 16:10 28,9 C 32,2 C 24,4 C 57 % 1017,8 hPa 0,0 l/m 2 min 0 min 719 W/m 12,9 km/h (3 Bft) 97,87 %
21.06.2023 16:12 29,0 C 30,6 C 24,4 C 58 % 1017,8 hPa 0,0 l/m 2 min 0 min 453 W/m 9,7 km/h (2 Bft) 95,65 %
21.06.2023 16:14 28,9 C 29,4 C 23,9 C 57 % 1017,9 hPa 0,0 l/m 0 min 0 min 214 W/m 12,9 km/h (3 Bft) 95,74 %
21.06.2023 16:16 28,9 C 28,9 C 23,9 C 57 % 1017,9 hPa 0,0 l/m 0 min 0 min 236 W/m 12,9 km/h (3 Bft) 95,74 %
21.06.2023 16:18 28,8 C 30,0 C 23,9 C 56 % 1017,9 hPa 0,0 l/m 2 min 0 min 413 W/m 16,1 km/h (3 Bft) 95,74 %
21.06.2023 16:20 28,8 C 31,7 C 23,9 C 56 % 1017,9 hPa 0,0 l/m 2 min 0 min 856 W/m 19,3 km/h (3 Bft) 95,74 %
21.06.2023 16:22 28,8 C 32,2 C 23,9 C 55 % 1017,9 hPa 0,0 l/m 2 min 0 min 825 W/m 12,9 km/h (3 Bft) 97,87 %
21.06.2023 16:24 28,8 C 32,2 C 23,9 C 55 % 1017,8 hPa 0,0 l/m 2 min 0 min 794 W/m 22,5 km/h (4 Bft) 97,87 %
21.06.2023 16:26 28,8 C 32,2 C 23,9 C 55 % 1017,9 hPa 0,0 l/m 2 min 0 min 773 W/m 12,9 km/h (3 Bft) 97,83 %
21.06.2023 16:28 28,8 C 32,2 C 23,9 C 55 % 1017,9 hPa 0,0 l/m 2 min 0 min 759 W/m 12,9 km/h (3 Bft) 97,87 %
21.06.2023 16:30 28,9 C 32,8 C 24,4 C 56 % 1017,7 hPa 0,0 l/m 2 min 0 min 753 W/m 16,1 km/h (3 Bft) 97,87 %
21.06.2023 16:32 28,9 C 32,8 C 24,4 C 55 % 1017,7 hPa 0,0 l/m 2 min 0 min 749 W/m 9,7 km/h (2 Bft) 93,62 %
21.06.2023 16:34 28,9 C 32,8 C 24,4 C 55 % 1017,7 hPa 0,0 l/m 2 min 0 min 752 W/m 9,7 km/h (2 Bft) 97,87 %
21.06.2023 16:36 29,0 C 32,8 C 24,4 C 55 % 1017,7 hPa 0,0 l/m 2 min 0 min 766 W/m 9,7 km/h (2 Bft) 97,87 %
21.06.2023 16:38 29,0 C 32,8 C 24,4 C 55 % 1017,8 hPa 0,0 l/m 2 min 0 min 768 W/m 9,7 km/h (2 Bft) 97,83 %
21.06.2023 16:40 29,1 C 32,8 C 24,4 C 55 % 1017,8 hPa 0,0 l/m 2 min 0 min 773 W/m 9,7 km/h (2 Bft) 97,87 %
21.06.2023 16:42 29,1 C 33,3 C 24,4 C 55 % 1017,8 hPa 0,0 l/m 2 min 0 min 755 W/m 12,9 km/h (3 Bft) 100,00 %
21.06.2023 16:44 29,1 C 32,8 C 24,4 C 56 % 1017,6 hPa 0,0 l/m 2 min 0 min 733 W/m 12,9 km/h (3 Bft) 100,00 %
21.06.2023 16:46 29,2 C 32,8 C 24,4 C 57 % 1017,7 hPa 0,0 l/m 2 min 0 min 722 W/m 32,2 km/h (5 Bft) 97,87 %
21.06.2023 16:48 29,2 C 32,8 C 24,4 C 56 % 1017,7 hPa 0,0 l/m 2 min 0 min 704 W/m 12,9 km/h (3 Bft) 100,00 %
21.06.2023 16:50 29,2 C 32,8 C 24,4 C 56 % 1017,8 hPa 0,0 l/m 2 min 0 min 704 W/m 22,5 km/h (4 Bft) 100,00 %
21.06.2023 16:52 29,2 C 32,8 C 24,4 C 55 % 1017,8 hPa 0,0 l/m 2 min 0 min 713 W/m 9,7 km/h (2 Bft) 100,00 %
21.06.2023 16:54 29,2 C 33,3 C 24,4 C 55 % 1017,8 hPa 0,0 l/m 2 min 0 min 691 W/m 6,4 km/h (2 Bft) 100,00 %
21.06.2023 16:56 29,2 C 33,3 C 24,4 C 55 % 1017,8 hPa 0,0 l/m 2 min 0 min 713 W/m 12,9 km/h (3 Bft) 100,00 %
21.06.2023 16:58 29,3 C 33,9 C 24,4 C 55 % 1017,8 hPa 0,0 l/m 2 min 0 min 707 W/m 6,4 km/h (2 Bft) 100,00 %
21.06.2023 17:00 29,3 C 33,3 C 24,4 C 54 % 1017,7 hPa 0,0 l/m 2 min 0 min 703 W/m 12,9 km/h (3 Bft) 97,87 %
21.06.2023 17:02 29,4 C 33,3 C 24,4 C 55 % 1017,8 hPa 0,0 l/m 2 min 0 min 687 W/m 9,7 km/h (2 Bft) 100,00 %
21.06.2023 17:04 29,4 C 33,9 C 25,0 C 55 % 1017,7 hPa 0,0 l/m 2 min 0 min 670 W/m 12,9 km/h (3 Bft) 100,00 %
21.06.2023 17:06 29,5 C 33,3 C 25,0 C 54 % 1017,8 hPa 0,0 l/m 2 min 0 min 664 W/m 16,1 km/h (3 Bft) 98,15 %
21.06.2023 17:08 29,5 C 33,3 C 24,4 C 53 % 1017,8 hPa 0,0 l/m 2 min 0 min 666 W/m 9,7 km/h (2 Bft) 100,00 %
21.06.2023 17:10 29,5 C 32,8 C 25,0 C 53 % 1017,8 hPa 0,0 l/m 2 min 0 min 662 W/m 12,9 km/h (3 Bft) 100,00 %
21.06.2023 17:14 29,6 C 32,8 C 25,0 C 54 % 1017,8 hPa 0,0 l/m 4 min 0 min 639 W/m 9,7 km/h (2 Bft) 98,00 %
21.06.2023 17:16 29,4 C 30,6 C 24,4 C 53 % 1017,8 hPa 0,0 l/m 2 min 0 min 333 W/m 12,9 km/h (3 Bft) 97,87 %
21.06.2023 17:18 29,4 C 29,4 C 24,4 C 53 % 1017,8 hPa 0,0 l/m 0 min 0 min 124 W/m 12,9 km/h (3 Bft) 100,00 %
21.06.2023 17:20 29,2 C 30,6 C 23,9 C 53 % 1017,8 hPa 0,0 l/m 0 min 0 min 130 W/m 6,4 km/h (2 Bft) 100,00 %
21.06.2023 17:22 29,2 C 29,4 C 23,9 C 54 % 1017,8 hPa 0,0 l/m 0 min 0 min 126 W/m 6,4 km/h (2 Bft) 100,00 %
21.06.2023 17:00 29,3 C 33,3 C 24,4 C 54 % 1017,7 hPa 0,0 l/m -22 min 0 min 706 W/m 12,9 km/h (3 Bft) 100,00 %
21.06.2023 17:05 29,4 C 33,3 C 25,0 C 53 % 1017,8 hPa 0,0 l/m 5 min 0 min 673 W/m 12,9 km/h (3 Bft) 100,00 %
21.06.2023 17:10 29,5 C 32,8 C 25,0 C 53 % 1017,8 hPa 0,0 l/m 5 min 0 min 662 W/m 16,1 km/h (3 Bft) 100,00 %
21.06.2023 17:15 29,5 C 31,7 C 24,4 C 53 % 1017,8 hPa 0,0 l/m 5 min 0 min 534 W/m 9,7 km/h (2 Bft) 100,00 %
21.06.2023 17:20 29,2 C 30,6 C 23,9 C 53 % 1017,8 hPa 0,0 l/m 0 min 0 min 122 W/m 12,9 km/h (3 Bft) 100,00 %
21.06.2023 17:25 28,9 C 28,3 C 23,3 C 54 % 1017,8 hPa 0,0 l/m 0 min 0 min 123 W/m 12,9 km/h (3 Bft) 100,00 %
21.06.2023 17:28 28,7 C 27,8 C 23,3 C 55 % 1017,9 hPa 0,0 l/m 0 min 0 min 152 W/m 6,4 km/h (2 Bft) 95,83 %
21.06.2023 17:30 28,6 C 27,8 C 23,3 C 54 % 1017,9 hPa 0,0 l/m 0 min 0 min 174 W/m 12,9 km/h (3 Bft) 98,04 %
21.06.2023 17:32 28,4 C 27,8 C 23,3 C 54 % 1017,9 hPa 0,0 l/m 0 min 0 min 174 W/m 6,4 km/h (2 Bft) 97,87 %
21.06.2023 17:34 28,4 C 29,4 C 23,3 C 55 % 1017,9 hPa 0,0 l/m 0 min 0 min 258 W/m 9,7 km/h (2 Bft) 97,87 %
21.06.2023 17:36 28,4 C 30,0 C 23,9 C 56 % 1017,9 hPa 0,0 l/m 2 min 0 min 636 W/m 9,7 km/h (2 Bft) 95,74 %
21.06.2023 17:38 28,4 C 30,6 C 23,9 C 55 % 1017,8 hPa 0,0 l/m 2 min 0 min 612 W/m 6,4 km/h (2 Bft) 97,87 %
21.06.2023 17:40 28,4 C 31,1 C 23,9 C 55 % 1017,8 hPa 0,0 l/m 2 min 0 min 385 W/m 3,2 km/h (1 Bft) 97,83 %
21.06.2023 17:42 28,5 C 32,2 C 24,4 C 56 % 1017,8 hPa 0,0 l/m 2 min 0 min 577 W/m 6,4 km/h (2 Bft) 97,87 %
21.06.2023 17:44 28,6 C 32,2 C 24,4 C 55 % 1017,8 hPa 0,0 l/m 2 min 0 min 561 W/m 12,9 km/h (3 Bft) 97,87 %
21.06.2023 17:46 28,6 C 32,2 C 24,4 C 55 % 1017,8 hPa 0,0 l/m 2 min 0 min 553 W/m 16,1 km/h (3 Bft) 97,87 %
21.06.2023 17:48 28,7 C 31,7 C 24,4 C 54 % 1017,8 hPa 0,0 l/m 2 min 0 min 550 W/m 19,3 km/h (3 Bft) 95,74 %
21.06.2023 17:50 28,7 C 32,2 C 25,0 C 54 % 1017,7 hPa 0,0 l/m 2 min 0 min 545 W/m 9,7 km/h (2 Bft) 95,74 %
21.06.2023 17:52 28,8 C 32,2 C 25,0 C 55 % 1017,7 hPa 0,0 l/m 2 min 0 min 529 W/m 12,9 km/h (3 Bft) 97,83 %
21.06.2023 17:54 28,8 C 32,8 C 25,0 C 54 % 1017,8 hPa 0,0 l/m 2 min 0 min 516 W/m 12,9 km/h (3 Bft) 97,87 %
21.06.2023 17:56 28,9 C 32,8 C 25,0 C 54 % 1017,8 hPa 0,0 l/m 2 min 0 min 518 W/m 12,9 km/h (3 Bft) 97,87 %
21.06.2023 17:58 28,9 C 32,2 C 25,0 C 54 % 1017,8 hPa 0,0 l/m 2 min 0 min 517 W/m 9,7 km/h (2 Bft) 95,74 %
21.06.2023 18:00 28,9 C 32,2 C 25,0 C 54 % 1017,8 hPa 0,0 l/m 2 min 0 min 517 W/m 16,1 km/h (3 Bft) 95,74 %
21.06.2023 18:02 28,9 C 32,8 C 25,0 C 54 % 1017,8 hPa 0,0 l/m 2 min 0 min 500 W/m 9,7 km/h (2 Bft) 95,83 %
21.06.2023 18:04 28,9 C 32,8 C 25,0 C 53 % 1017,7 hPa 0,0 l/m 2 min 0 min 503 W/m 9,7 km/h (2 Bft) 95,83 %
21.06.2023 18:07 28,9 C 32,2 C 25,0 C 53 % 1017,8 hPa 0,0 l/m 3 min 0 min 503 W/m 16,1 km/h (3 Bft) 92,96 %
21.06.2023 18:08 28,9 C 32,8 C 25,0 C 54 % 1017,8 hPa 0,0 l/m 1 min 0 min 522 W/m 6,4 km/h (2 Bft) 95,65 %
21.06.2023 18:12 28,9 C 32,8 C 25,0 C 54 % 1017,7 hPa 0,0 l/m 4 min 0 min 505 W/m 9,7 km/h (2 Bft) 92,59 %
21.06.2023 18:14 28,9 C 33,3 C 25,0 C 53 % 1017,8 hPa 0,0 l/m 2 min 0 min 470 W/m 12,9 km/h (3 Bft) 94,87 %
21.06.2023 18:16 29,0 C 33,3 C 25,0 C 53 % 1017,7 hPa 0,0 l/m 2 min 0 min 505 W/m 16,1 km/h (3 Bft) 89,29 %
21.06.2023 18:18 29,0 C 33,9 C 25,0 C 53 % 1017,8 hPa 0,0 l/m 2 min 0 min 515 W/m 9,7 km/h (2 Bft) 95,92 %
21.06.2023 18:20 29,0 C 33,9 C 25,0 C 55 % 1017,7 hPa 0,0 l/m 2 min 0 min 506 W/m 6,4 km/h (2 Bft) 93,62 %
21.06.2023 18:22 29,1 C 33,3 C 25,0 C 53 % 1017,8 hPa 0,0 l/m 2 min 0 min 495 W/m 12,9 km/h (3 Bft) 95,83 %
21.06.2023 18:24 29,1 C 33,9 C 25,6 C 53 % 1017,7 hPa 0,0 l/m 2 min 0 min 486 W/m 9,7 km/h (2 Bft) 95,74 %
21.06.2023 18:26 29,1 C 32,8 C 25,0 C 52 % 1017,7 hPa 0,0 l/m 2 min 0 min 483 W/m 6,4 km/h (2 Bft) 95,74 %
21.06.2023 18:28 29,1 C 32,8 C 25,0 C 53 % 1017,7 hPa 0,0 l/m 2 min 0 min 400 W/m 9,7 km/h (2 Bft) 93,62 %
21.06.2023 18:30 29,2 C 32,8 C 25,6 C 53 % 1017,8 hPa 0,0 l/m 2 min 0 min 396 W/m 12,9 km/h (3 Bft) 95,65 %
21.06.2023 18:32 29,2 C 32,8 C 25,6 C 52 % 1017,8 hPa 0,0 l/m 2 min 0 min 427 W/m 16,1 km/h (3 Bft) 97,87 %
21.06.2023 18:34 29,1 C 30,6 C 25,0 C 52 % 1017,8 hPa 0,0 l/m 0 min 0 min 203 W/m 16,1 km/h (3 Bft) 97,87 %
21.06.2023 18:36 29,1 C 30,6 C 24,4 C 52 % 1017,8 hPa 0,0 l/m 0 min 0 min 120 W/m 6,4 km/h (2 Bft) 97,87 %
21.06.2023 18:38 29,1 C 31,7 C 24,4 C 52 % 1017,7 hPa 0,0 l/m 2 min 0 min 416 W/m 9,7 km/h (2 Bft) 97,87 %
21.06.2023 18:40 29,1 C 32,2 C 25,0 C 53 % 1017,7 hPa 0,0 l/m 2 min 0 min 410 W/m 9,7 km/h (2 Bft) 97,87 %
21.06.2023 18:42 29,1 C 32,8 C 25,0 C 53 % 1017,6 hPa 0,0 l/m 2 min 0 min 399 W/m 6,4 km/h (2 Bft) 97,83 %
21.06.2023 18:44 29,1 C 33,3 C 25,6 C 53 % 1017,7 hPa 0,0 l/m 2 min 0 min 398 W/m 19,3 km/h (3 Bft) 97,87 %
21.06.2023 18:46 29,2 C 33,3 C 25,6 C 53 % 1017,7 hPa 0,0 l/m 2 min 0 min 381 W/m 16,1 km/h (3 Bft) 95,74 %
21.06.2023 18:48 29,2 C 32,8 C 25,6 C 53 % 1017,6 hPa 0,0 l/m 2 min 0 min 367 W/m 16,1 km/h (3 Bft) 95,74 %
21.06.2023 18:50 29,1 C 32,2 C 25,0 C 52 % 1017,6 hPa 0,0 l/m 2 min 0 min 356 W/m 12,9 km/h (3 Bft) 97,87 %
21.06.2023 18:52 29,1 C 32,2 C 25,6 C 52 % 1017,7 hPa 0,0 l/m 2 min 0 min 346 W/m 12,9 km/h (3 Bft) 97,87 %
21.06.2023 18:54 29,1 C 32,2 C 25,0 C 52 % 1017,7 hPa 0,0 l/m 2 min 0 min 347 W/m 16,1 km/h (3 Bft) 97,83 %
21.06.2023 18:56 29,1 C 32,2 C 25,6 C 52 % 1017,7 hPa 0,0 l/m 2 min 0 min 348 W/m 9,7 km/h (2 Bft) 97,87 %
21.06.2023 18:58 29,1 C 31,7 C 25,0 C 52 % 1017,7 hPa 0,0 l/m 2 min 0 min 324 W/m 3,2 km/h (1 Bft) 100,00 %
21.06.2023 19:00 29,0 C 31,1 C 25,0 C 52 % 1017,8 hPa 0,0 l/m 2 min 0 min 223 W/m 9,7 km/h (2 Bft) 100,00 %
21.06.2023 19:02 29,0 C 30,0 C 25,0 C 53 % 1017,8 hPa 0,0 l/m 0 min 0 min 92 W/m 6,4 km/h (2 Bft) 97,87 %
21.06.2023 19:04 28,9 C 28,9 C 24,4 C 53 % 1017,9 hPa 0,0 l/m 0 min 0 min 85 W/m 6,4 km/h (2 Bft) 97,92 %
21.06.2023 19:06 28,8 C 28,9 C 24,4 C 53 % 1017,9 hPa 0,0 l/m 0 min 0 min 103 W/m 9,7 km/h (2 Bft) 97,83 %
21.06.2023 19:08 28,7 C 29,4 C 23,9 C 54 % 1017,8 hPa 0,0 l/m 2 min 0 min 291 W/m 9,7 km/h (2 Bft) 100,00 %
21.06.2023 19:10 28,6 C 30,0 C 24,4 C 54 % 1017,8 hPa 0,0 l/m 2 min 0 min 305 W/m 12,9 km/h (3 Bft) 97,87 %
21.06.2023 19:12 28,6 C 30,6 C 24,4 C 54 % 1017,8 hPa 0,0 l/m 2 min 0 min 308 W/m 6,4 km/h (2 Bft) 100,00 %
21.06.2023 19:14 28,5 C 31,1 C 24,4 C 54 % 1017,7 hPa 0,0 l/m 2 min 0 min 304 W/m 6,4 km/h (2 Bft) 100,00 %
21.06.2023 19:16 28,5 C 31,1 C 23,9 C 54 % 1017,7 hPa 0,0 l/m 2 min 0 min 296 W/m 9,7 km/h (2 Bft) 100,00 %
21.06.2023 19:18 28,4 C 31,1 C 23,9 C 54 % 1017,7 hPa 0,0 l/m 2 min 0 min 258 W/m 12,9 km/h (3 Bft) 100,00 %
21.06.2023 19:20 28,4 C 29,4 C 23,9 C 54 % 1017,7 hPa 0,0 l/m 0 min 0 min 127 W/m 9,7 km/h (2 Bft) 97,83 %
21.06.2023 19:22 28,3 C 28,9 C 23,3 C 54 % 1017,8 hPa 0,0 l/m 0 min 0 min 103 W/m 9,7 km/h (2 Bft) 100,00 %
21.06.2023 19:24 28,3 C 29,4 C 23,3 C 54 % 1017,8 hPa 0,0 l/m 2 min 0 min 183 W/m 12,9 km/h (3 Bft) 100,00 %
21.06.2023 19:26 28,2 C 29,4 C 23,3 C 53 % 1017,8 hPa 0,0 l/m 2 min 0 min 285 W/m 22,5 km/h (4 Bft) 97,87 %
21.06.2023 19:28 28,2 C 29,4 C 23,3 C 54 % 1017,8 hPa 0,0 l/m 2 min 0 min 280 W/m 6,4 km/h (2 Bft) 100,00 %
21.06.2023 19:30 28,1 C 28,9 C 23,3 C 54 % 1017,8 hPa 0,0 l/m 2 min 0 min 243 W/m 9,7 km/h (2 Bft) 100,00 %
21.06.2023 19:32 28,1 C 28,3 C 23,3 C 54 % 1017,8 hPa 0,0 l/m 0 min 0 min 164 W/m 6,4 km/h (2 Bft) 100,00 %
21.06.2023 19:35 28,1 C 27,8 C 23,3 C 55 % 1017,8 hPa 0,0 l/m 0 min 0 min 138 W/m 6,4 km/h (2 Bft) 100,00 %
21.06.2023 19:38 28,1 C 27,8 C 22,8 C 54 % 1017,8 hPa 0,0 l/m 3 min 0 min 213 W/m 6,4 km/h (2 Bft) 98,04 %
21.06.2023 19:40 28,1 C 27,8 C 22,8 C 54 % 1017,9 hPa 0,0 l/m 2 min 0 min 215 W/m 6,4 km/h (2 Bft) 97,87 %
21.06.2023 19:42 28,1 C 27,2 C 22,8 C 54 % 1017,9 hPa 0,0 l/m 2 min 0 min 182 W/m 6,4 km/h (2 Bft) 97,87 %
21.06.2023 19:44 28,1 C 27,2 C 22,8 C 54 % 1017,8 hPa 0,0 l/m 2 min 0 min 172 W/m 12,9 km/h (3 Bft) 100,00 %
21.06.2023 19:46 28,1 C 26,7 C 22,8 C 54 % 1017,8 hPa 0,0 l/m 0 min 0 min 141 W/m 9,7 km/h (2 Bft) 100,00 %
21.06.2023 19:48 28,1 C 26,7 C 22,8 C 54 % 1017,9 hPa 0,0 l/m 0 min 0 min 125 W/m 9,7 km/h (2 Bft) 100,00 %
21.06.2023 19:50 28,0 C 26,7 C 22,8 C 55 % 1017,9 hPa 0,0 l/m 0 min 0 min 129 W/m 12,9 km/h (3 Bft) 100,00 %
21.06.2023 19:52 27,9 C 26,7 C 22,8 C 55 % 1017,9 hPa 0,0 l/m 2 min 0 min 164 W/m 12,9 km/h (3 Bft) 95,74 %
21.06.2023 19:54 27,8 C 26,7 C 22,8 C 54 % 1017,9 hPa 0,0 l/m 2 min 0 min 142 W/m 6,4 km/h (2 Bft) 97,87 %
21.06.2023 19:56 27,8 C 26,1 C 22,8 C 54 % 1017,9 hPa 0,0 l/m 2 min 0 min 135 W/m 12,9 km/h (3 Bft) 97,87 %
21.06.2023 19:58 27,7 C 26,1 C 22,8 C 55 % 1017,8 hPa 0,0 l/m 2 min 0 min 132 W/m 9,7 km/h (2 Bft) 97,87 %
21.06.2023 20:00 27,6 C 26,1 C 22,8 C 55 % 1017,8 hPa 0,0 l/m 0 min 0 min 118 W/m 6,4 km/h (2 Bft) 97,87 %
21.06.2023 20:02 27,6 C 26,1 C 22,8 C 56 % 1017,8 hPa 0,0 l/m 0 min 0 min 111 W/m 6,4 km/h (2 Bft) 97,83 %
21.06.2023 20:04 27,5 C 26,1 C 22,8 C 56 % 1017,8 hPa 0,0 l/m 0 min 0 min 103 W/m 9,7 km/h (2 Bft) 97,92 %
21.06.2023 20:06 27,4 C 26,1 C 22,8 C 56 % 1017,9 hPa 0,0 l/m 0 min 0 min 106 W/m 12,9 km/h (3 Bft) 97,87 %
21.06.2023 20:08 27,4 C 26,1 C 22,8 C 56 % 1017,9 hPa 0,0 l/m 0 min 0 min 105 W/m 9,7 km/h (2 Bft) 97,87 %
21.06.2023 20:10 27,3 C 26,1 C 22,8 C 56 % 1017,9 hPa 0,0 l/m 0 min 0 min 100 W/m 9,7 km/h (2 Bft) 97,87 %
21.06.2023 20:12 27,3 C 26,1 C 22,8 C 57 % 1018,0 hPa 0,0 l/m 0 min 0 min 92 W/m 6,4 km/h (2 Bft) 97,87 %
21.06.2023 20:14 27,2 C 26,1 C 22,2 C 57 % 1017,9 hPa 0,0 l/m 0 min 0 min 89 W/m 6,4 km/h (2 Bft) 97,83 %
21.06.2023 20:16 27,2 C 26,1 C 22,2 C 57 % 1017,9 hPa 0,0 l/m 0 min 0 min 93 W/m 0,0 km/h (0 Bft) 97,87 %
21.06.2023 20:18 27,1 C 26,1 C 22,2 C 58 % 1017,9 hPa 0,0 l/m 0 min 0 min 100 W/m 0,0 km/h (0 Bft) 97,87 %
21.06.2023 20:20 27,1 C 26,1 C 22,2 C 58 % 1017,9 hPa 0,0 l/m 2 min 0 min 106 W/m 0,0 km/h (0 Bft) 93,62 %
21.06.2023 20:22 27,1 C 26,1 C 22,2 C 57 % 1017,8 hPa 0,0 l/m 2 min 0 min 105 W/m 3,2 km/h (1 Bft) 95,74 %
21.06.2023 20:24 27,0 C 26,1 C 22,2 C 57 % 1017,8 hPa 0,0 l/m 0 min 0 min 95 W/m 0,0 km/h (0 Bft) 100,00 %
21.06.2023 20:26 26,9 C 26,1 C 22,2 C 58 % 1017,8 hPa 0,0 l/m 0 min 0 min 86 W/m 0,0 km/h (0 Bft) 97,87 %
21.06.2023 20:28 26,9 C 26,1 C 22,2 C 57 % 1017,8 hPa 0,0 l/m 0 min 0 min 80 W/m 0,0 km/h (0 Bft) 100,00 %
21.06.2023 20:30 26,9 C 26,1 C 22,2 C 58 % 1017,8 hPa 0,0 l/m 0 min 0 min 78 W/m 0,0 km/h (0 Bft) 97,87 %
21.06.2023 20:32 26,9 C 26,1 C 22,2 C 58 % 1017,7 hPa 0,0 l/m 0 min 0 min 79 W/m 0,0 km/h (0 Bft) 100,00 %
21.06.2023 20:34 26,8 C 26,1 C 22,2 C 57 % 1017,7 hPa 0,0 l/m 0 min 0 min 79 W/m 0,0 km/h (0 Bft) 100,00 %
21.06.2023 20:36 26,8 C 26,1 C 22,2 C 57 % 1017,7 hPa 0,0 l/m 0 min 0 min 79 W/m 0,0 km/h (0 Bft) 100,00 %
21.06.2023 20:38 26,8 C 25,6 C 22,2 C 57 % 1017,7 hPa 0,0 l/m 0 min 0 min 77 W/m 0,0 km/h (0 Bft) 97,87 %
21.06.2023 20:40 26,7 C 25,6 C 22,2 C 57 % 1017,7 hPa 0,0 l/m 0 min 0 min 75 W/m 0,0 km/h (0 Bft) 100,00 %
21.06.2023 20:42 26,7 C 25,6 C 22,2 C 57 % 1017,7 hPa 0,0 l/m 0 min 0 min 70 W/m 0,0 km/h (0 Bft) 100,00 %
21.06.2023 20:44 26,7 C 25,6 C 22,2 C 57 % 1017,7 hPa 0,0 l/m 0 min 0 min 65 W/m 0,0 km/h (0 Bft) 97,87 %
21.06.2023 20:46 26,6 C 25,6 C 22,2 C 57 % 1017,6 hPa 0,0 l/m 0 min 0 min 60 W/m 0,0 km/h (0 Bft) 97,87 %
21.06.2023 20:48 26,6 C 25,6 C 22,2 C 58 % 1017,6 hPa 0,0 l/m 0 min 0 min 55 W/m 0,0 km/h (0 Bft) 93,62 %
21.06.2023 20:50 26,6 C 25,6 C 21,7 C 58 % 1017,6 hPa 0,0 l/m 0 min 0 min 51 W/m 0,0 km/h (0 Bft) 95,74 %
21.06.2023 20:52 26,5 C 25,0 C 21,7 C 58 % 1017,6 hPa 0,0 l/m 0 min 0 min 48 W/m 0,0 km/h (0 Bft) 95,74 %
21.06.2023 20:54 26,4 C 25,0 C 21,7 C 58 % 1017,5 hPa 0,0 l/m 0 min 0 min 45 W/m 0,0 km/h (0 Bft) 95,65 %
21.06.2023 20:56 26,4 C 25,0 C 21,7 C 58 % 1017,5 hPa 0,0 l/m 0 min 0 min 42 W/m 0,0 km/h (0 Bft) 95,74 %
21.06.2023 20:58 26,4 C 25,0 C 21,7 C 58 % 1017,4 hPa 0,0 l/m 0 min 0 min 41 W/m 0,0 km/h (0 Bft) 95,74 %
21.06.2023 21:00 26,3 C 25,0 C 21,7 C 58 % 1017,4 hPa 0,0 l/m 0 min 0 min 40 W/m 0,0 km/h (0 Bft) 95,74 %
21.06.2023 21:02 26,3 C 25,0 C 21,7 C 58 % 1017,4 hPa 0,0 l/m 0 min 0 min 38 W/m 0,0 km/h (0 Bft) 87,23 %
21.06.2023 21:04 26,2 C 25,0 C 21,7 C 58 % 1017,4 hPa 0,0 l/m 0 min 0 min 36 W/m 0,0 km/h (0 Bft) 93,75 %
21.06.2023 21:06 26,1 C 25,0 C 21,7 C 58 % 1017,4 hPa 0,0 l/m 0 min 0 min 33 W/m 0,0 km/h (0 Bft) 91,30 %
21.06.2023 21:08 26,1 C 25,0 C 21,7 C 58 % 1017,4 hPa 0,0 l/m 0 min 0 min 30 W/m 0,0 km/h (0 Bft) 93,62 %
21.06.2023 21:10 26,0 C 25,0 C 21,1 C 57 % 1017,4 hPa 0,0 l/m 0 min 0 min 27 W/m 0,0 km/h (0 Bft) 95,74 %
21.06.2023 21:12 25,9 C 24,4 C 21,1 C 57 % 1017,3 hPa 0,0 l/m 0 min 0 min 25 W/m 0,0 km/h (0 Bft) 93,62 %
21.06.2023 21:14 25,9 C 24,4 C 21,1 C 57 % 1017,4 hPa 0,0 l/m 0 min 0 min 22 W/m 0,0 km/h (0 Bft) 93,62 %
21.06.2023 21:16 25,9 C 24,4 C 21,1 C 57 % 1017,4 hPa 0,0 l/m 0 min 0 min 21 W/m 0,0 km/h (0 Bft) 95,74 %
21.06.2023 21:18 25,8 C 24,4 C 21,1 C 59 % 1017,4 hPa 0,0 l/m 0 min 0 min 18 W/m 0,0 km/h (0 Bft) 95,65 %
21.06.2023 21:20 25,8 C 24,4 C 21,1 C 58 % 1017,4 hPa 0,0 l/m 0 min 0 min 15 W/m 0,0 km/h (0 Bft) 93,62 %
21.06.2023 21:22 25,8 C 24,4 C 21,1 C 58 % 1017,4 hPa 0,0 l/m 0 min 0 min 13 W/m 0,0 km/h (0 Bft) 93,62 %
21.06.2023 21:24 25,7 C 23,9 C 21,1 C 59 % 1017,4 hPa 0,0 l/m 0 min 0 min 11 W/m 0,0 km/h (0 Bft) 95,74 %
21.06.2023 21:26 25,7 C 23,9 C 21,1 C 59 % 1017,4 hPa 0,0 l/m 0 min 0 min 9 W/m 0,0 km/h (0 Bft) 95,74 %
21.06.2023 21:28 25,6 C 23,9 C 20,6 C 60 % 1017,4 hPa 0,0 l/m 0 min 0 min 9 W/m 0,0 km/h (0 Bft) 97,87 %
21.06.2023 21:30 25,6 C 23,9 C 20,6 C 60 % 1017,4 hPa 0,0 l/m 0 min 0 min 7 W/m 0,0 km/h (0 Bft) 95,74 %
21.06.2023 21:32 25,5 C 23,9 C 20,6 C 60 % 1017,4 hPa 0,0 l/m 0 min 0 min 7 W/m 0,0 km/h (0 Bft) 95,65 %
21.06.2023 21:34 25,4 C 23,9 C 20,6 C 60 % 1017,5 hPa 0,0 l/m 0 min 0 min 7 W/m 0,0 km/h (0 Bft) 97,87 %
21.06.2023 21:36 25,4 C 23,3 C 20,6 C 61 % 1017,5 hPa 0,0 l/m 0 min 0 min 6 W/m 0,0 km/h (0 Bft) 95,74 %
21.06.2023 21:38 25,3 C 23,3 C 20,6 C 62 % 1017,5 hPa 0,0 l/m 0 min 0 min 5 W/m 0,0 km/h (0 Bft) 95,74 %
21.06.2023 21:40 25,2 C 23,3 C 20,6 C 61 % 1017,6 hPa 0,0 l/m 0 min 0 min 5 W/m 0,0 km/h (0 Bft) 97,87 %
21.06.2023 21:42 25,2 C 23,3 C 20,6 C 60 % 1017,6 hPa 0,0 l/m 0 min 0 min 5 W/m 0,0 km/h (0 Bft) 97,87 %
21.06.2023 21:44 25,2 C 23,3 C 20,6 C 61 % 1017,6 hPa 0,0 l/m 0 min 0 min 5 W/m 0,0 km/h (0 Bft) 93,48 %
21.06.2023 21:46 25,1 C 23,3 C 20,6 C 60 % 1017,7 hPa 0,0 l/m 0 min 0 min 5 W/m 0,0 km/h (0 Bft) 97,87 %
21.06.2023 21:48 25,1 C 23,3 C 20,6 C 61 % 1017,8 hPa 0,0 l/m 0 min 0 min 5 W/m 0,0 km/h (0 Bft) 97,87 %
21.06.2023 21:50 25,1 C 23,3 C 20,6 C 62 % 1017,7 hPa 0,0 l/m 0 min 0 min 3 W/m 0,0 km/h (0 Bft) 95,74 %
21.06.2023 21:52 25,0 C 23,3 C 20,6 C 61 % 1017,7 hPa 0,0 l/m 0 min 0 min 0 W/m 0,0 km/h (0 Bft) 93,62 %
21.06.2023 21:54 24,9 C 23,3 C 20,6 C 61 % 1017,7 hPa 0,0 l/m 0 min 0 min 0 W/m 0,0 km/h (0 Bft) 97,87 %
21.06.2023 21:56 24,9 C 23,3 C 20,0 C 61 % 1017,7 hPa 0,0 l/m 0 min 0 min 0 W/m 0,0 km/h (0 Bft) 93,48 %
21.06.2023 21:58 24,8 C 23,3 C 20,0 C 61 % 1017,8 hPa 0,0 l/m 0 min 0 min 0 W/m 0,0 km/h (0 Bft) 97,87 %
21.06.2023 22:00 24,8 C 23,3 C 20,0 C 61 % 1017,8 hPa 0,0 l/m 0 min 0 min 0 W/m 0,0 km/h (0 Bft) 97,87 %
21.06.2023 22:02 24,7 C 23,3 C 20,0 C 61 % 1017,9 hPa 0,0 l/m 0 min 0 min 0 W/m 0,0 km/h (0 Bft) 97,87 %
21.06.2023 22:04 24,7 C 23,3 C 20,0 C 61 % 1017,9 hPa 0,0 l/m 0 min 0 min 0 W/m 0,0 km/h (0 Bft) 97,92 %
21.06.2023 22:06 24,7 C 23,3 C 20,0 C 61 % 1018,0 hPa 0,0 l/m 0 min 0 min 0 W/m 0,0 km/h (0 Bft) 97,87 %
21.06.2023 22:08 24,6 C 23,3 C 20,0 C 61 % 1018,0 hPa 0,0 l/m 0 min 0 min 0 W/m 0,0 km/h (0 Bft) 95,74 %
21.06.2023 22:10 24,6 C 23,3 C 20,0 C 61 % 1018,2 hPa 0,0 l/m 0 min 0 min 0 W/m 0,0 km/h (0 Bft) 95,65 %
21.06.2023 22:12 24,5 C 23,3 C 20,0 C 61 % 1018,2 hPa 0,0 l/m 0 min 0 min 0 W/m 0,0 km/h (0 Bft) 97,87 %
21.06.2023 22:14 24,4 C 23,3 C 20,0 C 62 % 1018,2 hPa 0,0 l/m 0 min 0 min 0 W/m 0,0 km/h (0 Bft) 97,87 %
21.06.2023 22:16 24,4 C 23,3 C 20,0 C 62 % 1018,3 hPa 0,0 l/m 0 min 0 min 0 W/m 6,4 km/h (2 Bft) 95,74 %
21.06.2023 22:18 24,4 C 23,3 C 20,0 C 62 % 1018,4 hPa 0,0 l/m 0 min 0 min 0 W/m 6,4 km/h (2 Bft) 95,74 %
21.06.2023 22:20 24,3 C 23,3 C 20,0 C 62 % 1018,3 hPa 0,0 l/m 0 min 0 min 0 W/m 9,7 km/h (2 Bft) 95,74 %
21.06.2023 22:22 24,3 C 23,3 C 20,0 C 62 % 1018,4 hPa 0,0 l/m 0 min 0 min 0 W/m 6,4 km/h (2 Bft) 97,83 %
21.06.2023 22:24 24,3 C 23,3 C 20,0 C 63 % 1018,5 hPa 0,0 l/m 0 min 0 min 0 W/m 3,2 km/h (1 Bft) 100,00 %
21.06.2023 22:26 24,2 C 23,3 C 20,0 C 63 % 1018,5 hPa 0,0 l/m 0 min 0 min 0 W/m 6,4 km/h (2 Bft) 100,00 %
21.06.2023 22:28 24,2 C 23,3 C 20,0 C 63 % 1018,4 hPa 0,0 l/m 0 min 0 min 0 W/m 3,2 km/h (1 Bft) 100,00 %
21.06.2023 22:30 24,2 C 22,8 C 20,0 C 63 % 1018,4 hPa 0,0 l/m 0 min 0 min 0 W/m 9,7 km/h (2 Bft) 100,00 %
21.06.2023 22:32 24,2 C 22,8 C 20,0 C 63 % 1018,4 hPa 0,0 l/m 0 min 0 min 0 W/m 6,4 km/h (2 Bft) 97,87 %
21.06.2023 22:34 24,1 C 22,8 C 20,0 C 63 % 1018,5 hPa 0,0 l/m 0 min 0 min 0 W/m 9,7 km/h (2 Bft) 100,00 %
21.06.2023 22:36 24,1 C 22,8 C 19,4 C 64 % 1018,5 hPa 0,0 l/m 0 min 0 min 0 W/m 3,2 km/h (1 Bft) 100,00 %
21.06.2023 22:38 24,1 C 22,8 C 19,4 C 64 % 1018,6 hPa 0,0 l/m 0 min 0 min 0 W/m 6,4 km/h (2 Bft) 100,00 %
21.06.2023 22:40 24,1 C 22,8 C 20,0 C 64 % 1018,6 hPa 0,0 l/m 0 min 0 min 0 W/m 6,4 km/h (2 Bft) 100,00 %
21.06.2023 22:42 24,0 C 22,8 C 19,4 C 64 % 1018,6 hPa 0,0 l/m 0 min 0 min 0 W/m 12,9 km/h (3 Bft) 100,00 %
21.06.2023 22:44 24,0 C 22,8 C 19,4 C 64 % 1018,5 hPa 0,0 l/m 0 min 0 min 0 W/m 3,2 km/h (1 Bft) 100,00 %
21.06.2023 22:46 23,9 C 22,8 C 19,4 C 64 % 1018,6 hPa 0,0 l/m 0 min 0 min 0 W/m 6,4 km/h (2 Bft) 100,00 %
21.06.2023 22:48 23,9 C 22,8 C 19,4 C 64 % 1018,6 hPa 0,0 l/m 0 min 0 min 0 W/m 12,9 km/h (3 Bft) 100,00 %
21.06.2023 22:50 23,9 C 22,8 C 19,4 C 64 % 1018,6 hPa 0,0 l/m 0 min 0 min 0 W/m 6,4 km/h (2 Bft) 100,00 %
21.06.2023 22:52 23,9 C 22,8 C 19,4 C 64 % 1018,6 hPa 0,0 l/m 0 min 0 min 0 W/m 9,7 km/h (2 Bft) 100,00 %
21.06.2023 22:54 23,9 C 22,8 C 19,4 C 64 % 1018,7 hPa 0,0 l/m 0 min 0 min 0 W/m 12,9 km/h (3 Bft) 100,00 %
21.06.2023 22:56 23,9 C 22,8 C 19,4 C 64 % 1018,7 hPa 0,0 l/m 0 min 0 min 0 W/m 9,7 km/h (2 Bft) 100,00 %
21.06.2023 22:58 23,9 C 22,8 C 19,4 C 64 % 1018,7 hPa 0,0 l/m 0 min 0 min 0 W/m 6,4 km/h (2 Bft) 100,00 %
21.06.2023 23:00 23,9 C 22,8 C 19,4 C 65 % 1018,7 hPa 0,0 l/m 0 min 0 min 0 W/m 6,4 km/h (2 Bft) 100,00 %
21.06.2023 23:02 23,8 C 22,8 C 19,4 C 65 % 1018,7 hPa 0,0 l/m 0 min 0 min 0 W/m 6,4 km/h (2 Bft) 100,00 %
21.06.2023 23:04 23,8 C 22,8 C 19,4 C 65 % 1018,6 hPa 0,0 l/m 0 min 0 min 0 W/m 9,7 km/h (2 Bft) 100,00 %
21.06.2023 23:06 23,8 C 22,8 C 19,4 C 65 % 1018,6 hPa 0,0 l/m 0 min 0 min 0 W/m 3,2 km/h (1 Bft) 100,00 %
21.06.2023 23:08 23,7 C 22,8 C 19,4 C 65 % 1018,7 hPa 0,0 l/m 0 min 0 min 0 W/m 9,7 km/h (2 Bft) 100,00 %
21.06.2023 23:10 23,7 C 22,8 C 19,4 C 65 % 1018,7 hPa 0,0 l/m 0 min 0 min 0 W/m 6,4 km/h (2 Bft) 100,00 %
21.06.2023 23:12 23,7 C 22,8 C 19,4 C 65 % 1018,7 hPa 0,0 l/m 0 min 0 min 0 W/m 6,4 km/h (2 Bft) 100,00 %
21.06.2023 23:14 23,6 C 22,2 C 18,9 C 65 % 1018,7 hPa 0,0 l/m 0 min 0 min 0 W/m 6,4 km/h (2 Bft) 100,00 %
21.06.2023 23:16 23,6 C 22,2 C 18,9 C 65 % 1018,7 hPa 0,0 l/m 0 min 0 min 0 W/m 9,7 km/h (2 Bft) 100,00 %
21.06.2023 23:18 23,6 C 22,2 C 18,9 C 65 % 1018,8 hPa 0,0 l/m 0 min 0 min 0 W/m 6,4 km/h (2 Bft) 100,00 %
21.06.2023 23:20 23,5 C 22,2 C 18,9 C 66 % 1018,9 hPa 0,0 l/m 0 min 0 min 0 W/m 3,2 km/h (1 Bft) 100,00 %
21.06.2023 23:22 23,5 C 22,2 C 18,9 C 66 % 1018,9 hPa 0,0 l/m 0 min 0 min 0 W/m 3,2 km/h (1 Bft) 100,00 %
21.06.2023 23:24 23,4 C 22,2 C 18,9 C 66 % 1018,9 hPa 0,0 l/m 0 min 0 min 0 W/m 3,2 km/h (1 Bft) 97,87 %
21.06.2023 23:26 23,4 C 22,2 C 18,9 C 66 % 1018,9 hPa 0,0 l/m 0 min 0 min 0 W/m 6,4 km/h (2 Bft) 97,87 %
21.06.2023 23:28 23,3 C 22,2 C 18,9 C 66 % 1018,9 hPa 0,0 l/m 0 min 0 min 0 W/m 3,2 km/h (1 Bft) 97,83 %
21.06.2023 23:30 23,3 C 22,2 C 18,9 C 66 % 1018,9 hPa 0,0 l/m 0 min 0 min 0 W/m 3,2 km/h (1 Bft) 97,87 %
21.06.2023 23:32 23,3 C 22,2 C 18,9 C 67 % 1018,9 hPa 0,0 l/m 0 min 0 min 0 W/m 6,4 km/h (2 Bft) 97,87 %
21.06.2023 23:34 23,3 C 22,2 C 18,9 C 67 % 1018,9 hPa 0,0 l/m 0 min 0 min 0 W/m 6,4 km/h (2 Bft) 95,74 %
21.06.2023 23:36 23,2 C 22,2 C 18,9 C 67 % 1018,8 hPa 0,0 l/m 0 min 0 min 0 W/m 3,2 km/h (1 Bft) 97,87 %
21.06.2023 23:38 23,2 C 22,2 C 18,9 C 67 % 1018,7 hPa 0,0 l/m 0 min 0 min 0 W/m 3,2 km/h (1 Bft) 95,74 %
21.06.2023 23:40 23,2 C 22,2 C 18,9 C 67 % 1018,8 hPa 0,0 l/m 0 min 0 min 0 W/m 3,2 km/h (1 Bft) 95,74 %
21.06.2023 23:42 23,2 C 22,2 C 18,9 C 67 % 1018,7 hPa 0,0 l/m 0 min 0 min 0 W/m 3,2 km/h (1 Bft) 97,83 %
21.06.2023 23:44 23,2 C 22,2 C 18,9 C 67 % 1018,8 hPa 0,0 l/m 0 min 0 min 0 W/m 3,2 km/h (1 Bft) 95,74 %
21.06.2023 23:46 23,2 C 22,2 C 18,9 C 67 % 1018,7 hPa 0,0 l/m 0 min 0 min 0 W/m 3,2 km/h (1 Bft) 96,00 %
21.06.2023 23:48 23,2 C 22,2 C 18,9 C 67 % 1018,7 hPa 0,0 l/m 0 min 0 min 0 W/m 6,4 km/h (2 Bft) 93,62 %
21.06.2023 23:50 23,2 C 22,2 C 18,9 C 67 % 1018,7 hPa 0,0 l/m 0 min 0 min 0 W/m 6,4 km/h (2 Bft) 94,74 %
21.06.2023 23:52 23,2 C 22,2 C 18,9 C 67 % 1018,7 hPa 0,0 l/m 0 min 0 min 0 W/m 3,2 km/h (1 Bft) 91,49 %
21.06.2023 23:54 23,2 C 22,2 C 18,9 C 67 % 1018,7 hPa 0,0 l/m 0 min 0 min 0 W/m 3,2 km/h (1 Bft) 93,48 %
21.06.2023 23:56 23,1 C 22,2 C 18,9 C 67 % 1018,7 hPa 0,0 l/m 0 min 0 min 0 W/m 3,2 km/h (1 Bft) 91,49 %
21.06.2023 23:58 23,1 C 22,2 C 18,9 C 67 % 1018,7 hPa 0,0 l/m 0 min 0 min 0 W/m 6,4 km/h (2 Bft) 91,49 %
_ Min-Zeit 05:02 04:50 02:48 18:26 00:04 - - - - 00:00 08:32
Minimum _ 18,3 C 17,2 C 13,9 C 52 % 1012,2 hPa - - - - 0,0 km/h (0 Bft) 57,50 %
_ Max-Zeit 17:14 14:48 13:42 05:58 23:20 00:00 17:05 00:00 13:44 16:46 00:00
Maximum _ 29,6 C 33,9 C 31,1 C 96 % 1018,9 hPa 0,0 l/m 5 min 0 min 1062 W/m 32,2 km/h
W (5 Bft)
100,00 %
Durchschnitt _ 23,7 C 24,3 C 20,2 C 76 % 1016,2 hPa #0,0 l/m #8:26 h #0 min. 389 W/m 7,6 km/h (2 Bft) 97,40 %
© 2023 W. Hausmann